GW2826 Weather Reports


time (UTC)temp
F
wind
direction
speed
knots
gust
knots
rain 1hr
in
rain 24hr
in
rain mn
in
humidity
%
barometer
mb
20260508122307 56 266 6.1 12.2 0.00 0.00 0.00 73 1005.4
20260508122204 56 265 6.1 12.2 0.00 0.00 0.00 74 1005.4
20260508122104 56 264 6.1 12.2 0.00 0.00 0.00 74 1005.3
20260508122025 57 265 6.1 12.2 0.00 0.00 0.00 74 1005.3
20260508121904 57 269 6.1 12.2 0.00 0.00 0.00 73 1005.4
20260508121804 56 269 6.1 11.3 0.00 0.00 0.00 73 1005.2
20260508121704 56 266 6.1 11.3 0.00 0.00 0.00 75 1005.4
20260508121604 56 266 6.1 11.3 0.00 0.00 0.00 75 1005.3
20260508121504 56 264 6.1 11.3 0.00 0.00 0.00 75 1005.3
20260508121404 56 263 6.1 11.3 0.00 0.00 0.00 76 1005.4
20260508121325 56 267 6.1 11.3 0.00 0.00 0.00 75 1005.2
20260508121204 56 269 7.0 11.3 0.00 0.00 0.00 77 1005.3
20260508121104 56 270 7.0 12.2 0.00 0.00 0.00 76 1005.3
20260508121004 56 268 7.0 12.2 0.00 0.00 0.00 77 1005.3
20260508120904 56 264 7.0 12.2 0.00 0.00 0.00 78 1005.3
20260508120804 56 263 7.0 12.2 0.00 0.00 0.00 77 1005.3
20260508120725 56 266 7.0 12.2 0.00 0.00 0.00 79 1005.3
20260508120604 56 267 7.0 12.2 0.00 0.00 0.00 80 1005.3
20260508120504 55 268 7.0 12.2 0.00 0.00 0.00 80 1005.2
20260508120425 55 270 7.0 12.2 0.00 0.00 0.00 80 1005.2
20260508120304 55 267 6.1 12.2 0.00 0.00 0.00 80 1005.3
20260508120204 56 265 6.1 12.2 0.00 0.00 0.00 80 1005.3
20260508120104 56 264 6.1 12.2 0.00 0.00 0.00 81 1005.3
20260508120025 56 265 5.2 12.2 0.00 0.00 0.00 82 1005.4
20260508115904 56 269 5.2 11.3 0.00 0.00 0.00 80 1005.4
20260508115804 57 268 5.2 11.3 0.00 0.00 0.00 80 1005.3
20260508115725 57 269 5.2 11.3 0.00 0.00 0.00 81 1005.2
20260508115604 57 266 5.2 11.3 0.00 0.00 0.00 81 1005.2
20260508115504 57 264 5.2 9.6 0.00 0.00 0.00 82 1005.2
20260508115404 57 263 4.3 9.6 0.00 0.00 0.00 82 1005.4
20260508115306 57 266 4.3 9.6 0.00 0.00 0.00 82 1005.3
20260508115204 57 268 4.3 11.3 0.00 0.00 0.00 81 1005.1
20260508115104 57 266 4.3 11.3 0.00 0.00 0.00 81 1005.1
20260508115004 57 268 5.2 11.3 0.00 0.00 0.00 80 1005.2
20260508114904 57 268 5.2 11.3 0.00 0.00 0.00 82 1005.1
20260508114804 56 270 5.2 11.3 0.00 0.00 0.00 82 1005.1
20260508114725 56 267 5.2 11.3 0.00 0.00 0.00 82 1005.2
20260508114604 57 268 6.1 11.3 0.00 0.00 0.00 81 1005.2
20260508114504 57 269 5.2 11.3 0.00 0.00 0.00 81 1005.1
20260508114425 56 271 6.1 11.3 0.00 0.00 0.00 82 1005.3
20260508114304 56 274 6.1 11.3 0.00 0.00 0.00 82 1005.1
20260508114225 56 273 6.1 11.3 0.00 0.00 0.00 83 1005.1
20260508114104 56 272 7.0 11.3 0.00 0.00 0.00 81 1005.3
20260508114004 56 271 7.0 11.3 0.00 0.00 0.00 80 1005.0
20260508113925 56 269 7.0 11.3 0.00 0.00 0.00 81 1005.1
20260508113804 56 268 6.1 11.3 0.00 0.00 0.00 81 1005.3
20260508113704 56 272 6.1 11.3 0.00 0.00 0.00 81 1005.4
20260508113625 56 274 6.1 11.3 0.00 0.00 0.00 81 1005.2
20260508113525 56 274 6.1 11.3 0.00 0.00 0.00 80 1005.1
20260508113404 56 272 6.1 11.3 0.00 0.00 0.00 80 1005.3
20260508113304 56 269 6.1 11.3 0.00 0.00 0.00 81 1005.3
20260508113225 56 270 6.1 11.3 0.00 0.00 0.00 80 1005.2
20260508113104 56 270 6.1 11.3 0.00 0.00 0.00 80 1005.4
20260508113004 56 270 6.1 11.3 0.00 0.00 0.00 82 1005.1
20260508112925 56 270 6.1 11.3 0.00 0.00 0.00 82 1005.1
20260508112804 56 269 6.1 11.3 0.00 0.00 0.00 83 1005.0
20260508112725 55 270 6.1 11.3 0.00 0.00 0.00 83 1005.0
20260508112604 55 270 6.1 11.3 0.00 0.00 0.00 82 1005.1
20260508112525 56 269 6.1 11.3 0.00 0.00 0.00 81 1005.1
20260508112404 56 269 6.1 11.3 0.00 0.00 0.00 80 1005.0
20260508112306 56 271 5.2 11.3 0.00 0.00 0.00 79 1005.2
20260508112204 56 272 5.2 11.3 0.00 0.00 0.00 78 1005.2
20260508112104 57 270 5.2 11.3 0.00 0.00 0.00 80 1005.3
20260508112025 57 268 5.2 11.3 0.00 0.00 0.00 79 1005.0
20260508111904 57 269 5.2 9.6 0.00 0.00 0.00 80 1005.2
20260508111825 57 270 5.2 9.6 0.00 0.00 0.00 78 1005.0
20260508111704 57 263 5.2 9.6 0.00 0.00 0.00 78 1004.9
20260508111604 57 255 5.2 9.6 0.00 0.00 0.00 79 1005.1
20260508111504 57 251 5.2 9.6 0.00 0.00 0.00 77 1005.0
20260508111425 57 248 5.2 9.6 0.00 0.00 0.00 77 1005.0
20260508111304 57 244 6.1 9.6 0.00 0.00 0.00 80 1005.0
20260508111204 57 241 6.1 9.6 0.00 0.00 0.00 79 1005.0
20260508111104 58 241 6.1 12.2 0.00 0.00 0.00 81 1005.2
20260508111004 58 241 6.1 12.2 0.00 0.00 0.00 77 1004.9
20260508110904 58 240 6.1 13.0 0.00 0.00 0.00 69 1005.1
20260508110825 58 236 7.0 13.0 0.00 0.00 0.00 67 1004.9
20260508110704 57 241 6.1 13.0 0.00 0.00 0.00 67 1005.0
20260508110604 57 247 7.0 13.0 0.00 0.00 0.00 67 1005.1
20260508110504 58 248 7.0 13.0 0.00 0.00 0.00 63 1005.2
20260508110404 58 249 7.0 13.0 0.00 0.00 0.00 67 1005.0
20260508110325 57 250 7.0 13.0 0.00 0.00 0.00 67 1005.0
20260508110204 57 248 7.0 13.0 0.00 0.00 0.00 68 1004.9
20260508110125 57 246 7.8 13.9 0.00 0.00 0.00 67 1005.0
20260508110025 57 245 7.0 13.9 0.00 0.00 0.00 66 1004.9
20260508105925 57 240 7.0 13.9 0.00 0.00 0.00 69 1005.0
20260508105804 57 239 7.0 13.9 0.00 0.00 0.00 68 1005.1
20260508105725 57 237 7.0 13.9 0.00 0.00 0.00 69 1005.0
20260508105625 57 227 7.0 13.9 0.00 0.00 0.00 66 1005.0
20260508105504 57 226 7.0 13.9 0.00 0.00 0.00 68 1005.1
20260508105404 57 226 7.0 13.9 0.00 0.00 0.00 67 1004.9
20260508105306 57 223 6.1 13.9 0.00 0.00 0.00 67 1005.1
20260508105204 57 222 6.1 13.9 0.00 0.00 0.00 67 1005.0
20260508105104 57 222 6.1 13.9 0.00 0.00 0.00 67 1005.0
20260508105025 57 223 6.1 13.9 0.00 0.00 0.00 66 1005.0
20260508104904 57 226 6.1 13.0 0.00 0.00 0.00 68 1004.8
20260508104804 58 225 6.1 9.6 0.00 0.00 0.00 68 1005.1
20260508104725 58 225 6.1 9.6 0.00 0.00 0.00 67 1004.9
20260508104604 57 231 6.1 9.6 0.00 0.00 0.00 68 1004.8
20260508104504 57 229 5.2 9.6 0.00 0.00 0.00 67 1005.0
20260508104404 58 228 5.2 9.6 0.00 0.00 0.00 67 1004.9
20260508104304 58 232 5.2 9.6 0.00 0.00 0.00 65 1004.7
20260508104204 57 234 6.1 9.6 0.00 0.00 0.00 69 1004.9
20260508104104 57 233 6.1 11.3 0.00 0.00 0.00 71 1004.7
20260508104004 57 234 6.1 11.3 0.00 0.00 0.00 71 1004.7
20260508103904 57 238 6.1 11.3 0.00 0.00 0.00 67 1004.9
20260508103804 57 237 6.1 11.3 0.00 0.00 0.00 68 1004.9
20260508103725 57 238 6.1 11.3 0.00 0.00 0.00 66 1005.1
20260508103604 57 239 6.1 11.3 0.00 0.00 0.00 69 1004.7
20260508103504 57 243 6.1 11.3 0.00 0.00 0.00 66 1005.0
20260508103404 57 240 7.0 11.3 0.00 0.00 0.00 68 1005.0
20260508103304 57 243 6.1 11.3 0.00 0.00 0.00 66 1004.9
20260508103204 57 244 7.0 11.3 0.00 0.00 0.00 69 1005.0
20260508103104 57 246 7.0 11.3 0.00 0.00 0.00 66 1005.0
20260508103004 57 244 7.0 11.3 0.00 0.00 0.00 65 1004.7
20260508102904 57 243 7.0 11.3 0.00 0.00 0.00 66 1004.7
20260508102804 56 245 7.0 11.3 0.00 0.00 0.00 70 1004.8
20260508102704 56 246 7.0 11.3 0.00 0.00 0.00 71 1004.8
20260508102604 56 247 7.0 11.3 0.00 0.00 0.00 70 1004.8
20260508102503 56 244 6.1 11.3 0.00 0.00 0.00 71 1004.9
20260508102404 56 245 6.1 11.3 0.00 0.00 0.00 71 1004.9
20260508102306 56 243 6.1 11.3 0.00 0.00 0.00 72 1004.8
20260508102204 56 241 6.1 11.3 0.00 0.00 0.00 70 1004.9
20260508102125 56 242 6.1 11.3 0.00 0.00 0.00 74 1004.8
20260508102025 56 242 6.1 11.3 0.00 0.00 0.00 69 1004.8
20260508101904 56 245 6.1 11.3 0.00 0.00 0.00 70 1004.5
20260508101804 56 247 6.1 11.3 0.00 0.00 0.00 73 1004.9
20260508101704 56 248 6.1 11.3 0.00 0.00 0.00 77 1004.9
20260508101604 56 247 6.1 11.3 0.00 0.00 0.00 76 1004.6
20260508101504 56 248 6.1 11.3 0.00 0.00 0.00 76 1005.1
20260508101404 56 251 6.1 11.3 0.00 0.00 0.00 75 1004.9
20260508101304 56 248 5.2 11.3 0.00 0.00 0.00 76 1005.0
20260508101204 56 249 5.2 11.3 0.00 0.00 0.00 74 1005.0
20260508101104 56 248 5.2 11.3 0.00 0.00 0.00 76 1004.9
20260508101004 56 245 5.2 11.3 0.00 0.00 0.00 76 1004.9
20260508100925 56 242 5.2 11.3 0.00 0.00 0.00 77 1004.9
20260508100804 56 239 5.2 11.3 0.00 0.00 0.00 78 1004.9
20260508100704 56 241 5.2 11.3 0.00 0.00 0.00 75 1005.1
20260508100603 56 242 5.2 11.3 0.00 0.00 0.00 76 1004.8
20260508100504 57 242 5.2 11.3 0.00 0.00 0.00 76 1004.8
20260508100404 57 244 6.1 12.2 0.00 0.00 0.00 73 1004.7
20260508100304 57 248 6.1 12.2 0.00 0.00 0.00 77 1005.0
20260508100204 56 245 6.1 12.2 0.00 0.00 0.00 78 1004.9
20260508100104 55 244 7.0 12.2 0.00 0.00 0.00 80 1004.9
20260508100004 55 243 7.0 12.2 0.00 0.00 0.00 79 1004.8
20260508095904 55 244 7.0 12.2 0.00 0.00 0.00 76 1004.8
20260508095804 56 246 7.0 12.2 0.00 0.00 0.00 77 1004.8
20260508095704 56 246 7.0 12.2 0.00 0.00 0.00 78 1004.8
20260508095604 55 244 7.0 12.2 0.00 0.00 0.00 77 1004.7
20260508095504 55 242 7.8 12.2 0.00 0.00 0.00 76 1005.0
20260508095404 55 239 7.8 12.2 0.00 0.00 0.00 78 1005.0
20260508095325 55 236 7.8 12.2 0.00 0.00 0.00 77 1004.8
20260508095204 55 237 7.8 12.2 0.00 0.00 0.00 77 1004.8
20260508095104 55 240 7.8 13.0 0.00 0.00 0.00 78 1004.9
20260508095004 55 242 7.8 13.0 0.00 0.00 0.00 77 1004.9
20260508094925 55 242 7.8 13.0 0.00 0.00 0.00 77 1004.7
20260508094825 55 241 7.8 13.0 0.00 0.00 0.00 78 1004.9
20260508094704 55 240 7.8 13.0 0.00 0.00 0.00 79 1004.9
20260508094604 55 240 7.0 13.0 0.00 0.00 0.00 80 1004.8
20260508094504 55 239 7.0 13.0 0.00 0.00 0.00 79 1005.1
20260508094404 55 241 7.0 13.0 0.00 0.00 0.00 79 1004.9
20260508094304 55 242 6.1 13.0 0.00 0.00 0.00 78 1004.9
20260508094204 55 240 6.1 13.0 0.00 0.00 0.00 78 1004.7
20260508094104 55 239 6.1 13.0 0.00 0.00 0.00 79 1004.7
20260508094004 55 236 6.1 13.0 0.00 0.00 0.00 77 1005.0
20260508093904 56 233 5.2 11.3 0.00 0.00 0.00 80 1004.9
20260508093804 56 232 5.2 8.7 0.00 0.00 0.00 80 1004.9
20260508093704 55 235 5.2 11.3 0.00 0.00 0.00 80 1004.8
20260508093604 55 239 5.2 11.3 0.00 0.00 0.00 81 1004.7
20260508093504 55 241 5.2 11.3 0.00 0.00 0.00 80 1004.8
20260508093404 55 240 5.2 11.3 0.00 0.00 0.00 82 1004.8
20260508093304 55 239 5.2 11.3 0.00 0.00 0.00 81 1005.0
20260508093204 55 241 5.2 11.3 0.00 0.00 0.00 79 1004.8
20260508093104 55 241 5.2 11.3 0.00 0.00 0.00 81 1005.0
20260508093004 55 240 5.2 11.3 0.00 0.00 0.00 81 1004.9
20260508092904 55 241 5.2 11.3 0.00 0.00 0.00 80 1004.9
20260508092804 55 243 5.2 11.3 0.00 0.00 0.00 82 1004.7
20260508092704 55 239 5.2 11.3 0.00 0.00 0.00 82 1004.7
20260508092625 55 235 5.2 11.3 0.00 0.00 0.00 82 1004.8
20260508092504 54 237 5.2 8.7 0.00 0.00 0.00 83 1004.9
20260508092404 54 243 5.2 12.2 0.00 0.00 0.00 83 1004.6
20260508092312 54 242 5.2 12.2 0.00 0.00 0.00 83 1004.9
20260508092204 54 244 5.2 12.2 0.00 0.00 0.00 83 1004.9
20260508092104 54 244 6.1 12.2 0.00 0.00 0.00 82 1004.7
20260508092004 54 245 6.1 12.2 0.00 0.00 0.00 81 1004.7
20260508091904 54 245 6.1 12.2 0.00 0.00 0.00 82 1004.9
20260508091803 54 246 6.1 12.2 0.00 0.00 0.00 83 1004.8
20260508091704 54 247 6.1 12.2 0.00 0.00 0.00 82 1004.7
20260508091625 54 248 6.1 12.2 0.00 0.00 0.00 82 1004.7
20260508091504 53 247 6.1 12.2 0.00 0.00 0.00 82 1004.7
20260508091403 53 246 6.1 12.2 0.00 0.00 0.00 83 1004.6
20260508091304 54 247 6.1 12.2 0.00 0.00 0.00 82 1004.6
20260508091203 54 248 5.2 12.2 0.00 0.00 0.00 82 1004.9
20260508091104 54 249 5.2 9.6 0.00 0.00 0.00 83 1004.6
20260508091003 54 251 5.2 9.6 0.00 0.00 0.00 83 1004.7
20260508090904 54 253 5.2 9.6 0.00 0.00 0.00 83 1004.8
20260508090804 54 255 4.3 8.7 0.00 0.00 0.00 84 1004.8
20260508090704 54 255 4.3 8.7 0.00 0.00 0.00 83 1004.6
20260508090604 54 255 4.3 8.7 0.00 0.00 0.00 84 1004.7
20260508090525 54 257 4.3 8.7 0.00 0.00 0.00 85 1004.7
20260508090425 53 257 4.3 8.7 0.00 0.00 0.00 84 1004.7
20260508090304 53 258 4.3 8.7 0.00 0.00 0.00 86 1004.6
20260508090204 53 256 5.2 8.7 0.00 0.00 0.00 85 1004.6
20260508090125 53 254 5.2 8.7 0.00 0.00 0.00 85 1004.7
20260508090004 54 253 5.2 8.7 0.00 0.00 0.00 85 1004.8
20260508085904 54 253 5.2 8.7 0.00 0.00 0.00 85 1004.7
20260508085804 54 254 5.2 8.7 0.00 0.00 0.00 86 1004.3
20260508085704 54 254 5.2 8.7 0.00 0.00 0.00 86 1004.6
20260508085603 53 257 5.2 9.6 0.00 0.00 0.00 86 1004.5
20260508085525 53 256 5.2 9.6 0.00 0.00 0.00 86 1004.6
20260508085403 53 255 5.2 9.6 0.00 0.00 0.00 85 1004.7
20260508085306 53 256 5.2 9.6 0.00 0.00 0.00 86 1004.7
20260508085204 53 255 5.2 9.6 0.00 0.00 0.00 86 1004.6
20260508085125 53 256 5.2 9.6 0.00 0.00 0.00 86 1004.7
20260508085004 53 259 5.2 9.6 0.00 0.00 0.00 87 1004.5
20260508084904 53 259 6.1 9.6 0.00 0.00 0.00 86 1004.7
20260508084804 53 258 6.1 9.6 0.00 0.00 0.00 86 1004.5
20260508084704 53 258 6.1 9.6 0.00 0.00 0.00 85 1004.5
20260508084604 53 255 6.1 9.6 0.00 0.00 0.00 85 1004.6
20260508084504 53 256 5.2 9.6 0.00 0.00 0.00 86 1004.5
20260508084404 53 257 5.2 9.6 0.00 0.00 0.00 86 1004.7
20260508084324 53 258 5.2 9.6 0.00 0.00 0.00 86 1004.7
20260508084204 53 258 5.2 9.6 0.00 0.00 0.00 86 1004.5
20260508084125 53 260 5.2 9.6 0.00 0.00 0.00 87 1004.6
20260508084004 52 260 5.2 9.6 0.00 0.00 0.00 87 1004.7
20260508083904 52 260 5.2 9.6 0.00 0.00 0.00 87 1004.5
20260508083825 52 258 5.2 9.6 0.00 0.00 0.00 88 1004.5
20260508083704 52 258 5.2 11.3 0.00 0.00 0.00 88 1004.5
20260508083604 52 257 6.1 11.3 0.00 0.00 0.00 89 1004.7
20260508083504 52 255 6.1 11.3 0.00 0.00 0.00 88 1004.5
20260508083403 52 259 6.1 11.3 0.00 0.00 0.00 89 1004.5
20260508083304 52 261 6.1 11.3 0.00 0.00 0.00 88 1004.7
20260508083204 51 261 6.1 11.3 0.00 0.00 0.00 89 1004.4
20260508083104 51 259 6.1 11.3 0.00 0.00 0.00 88 1004.6
20260508083004 51 259 6.1 11.3 0.00 0.00 0.00 88 1004.5
20260508082904 51 260 6.1 11.3 0.00 0.00 0.00 88 1004.7
20260508082804 51 264 6.1 11.3 0.00 0.00 0.00 88 1004.6
20260508082724 51 261 6.1 11.3 0.00 0.00 0.00 88 1004.6
20260508082604 51 265 6.1 9.6 0.00 0.00 0.00 87 1004.6
20260508082503 51 265 6.1 9.6 0.00 0.00 0.00 88 1004.6
20260508082404 51 259 6.1 11.3 0.00 0.00 0.00 88 1004.5
20260508082306 51 257 6.1 11.3 0.00 0.00 0.00 89 1004.4
20260508082204 52 255 6.1 11.3 0.00 0.00 0.00 89 1004.6
20260508082104 52 255 6.1 11.3 0.00 0.00 0.00 90 1004.5
20260508082004 52 253 6.1 12.2 0.00 0.00 0.00 89 1004.3
20260508081904 52 248 6.1 12.2 0.00 0.00 0.00 90 1004.6
20260508081804 52 247 7.0 12.2 0.00 0.00 0.00 89 1004.5
20260508081725 52 249 7.0 12.2 0.00 0.00 0.00 89 1004.4
20260508081604 52 248 7.0 12.2 0.00 0.00 0.00 89 1004.6
20260508081504 52 247 7.0 12.2 0.00 0.00 0.00 89 1004.4
20260508081404 52 249 7.0 12.2 0.00 0.00 0.00 89 1004.4
20260508081304 52 249 7.0 12.2 0.00 0.00 0.00 89 1004.4
20260508081203 51 246 7.0 12.2 0.00 0.00 0.00 89 1004.5
20260508081104 52 241 7.0 12.2 0.00 0.00 0.00 89 1004.6
20260508081004 52 240 7.0 12.2 0.00 0.00 0.00 89 1004.3
20260508080904 52 242 6.1 11.3 0.00 0.00 0.00 90 1004.5
20260508080803 52 239 6.1 11.3 0.00 0.00 0.00 89 1004.5
20260508080704 52 235 6.1 11.3 0.00 0.00 0.00 90 1004.5
20260508080604 52 234 5.2 8.7 0.00 0.00 0.00 90 1004.7
20260508080504 52 235 5.2 8.7 0.00 0.00 0.00 90 1004.4
20260508080425 52 235 5.2 8.7 0.00 0.00 0.00 91 1004.4
20260508080304 52 234 5.2 7.8 0.00 0.00 0.00 91 1004.4
20260508080204 52 237 5.2 7.8 0.00 0.00 0.00 90 1004.4
20260508080104 52 241 5.2 7.8 0.00 0.00 0.00 90 1004.5
20260508080004 52 246 5.2 7.8 0.00 0.00 0.00 91 1004.4
20260508075904 52 248 5.2 7.8 0.00 0.00 0.00 91 1004.5
20260508075804 52 250 5.2 8.7 0.00 0.00 0.00 92 1004.5
20260508075704 52 250 5.2 9.6 0.00 0.00 0.00 91 1004.4
20260508075604 52 253 5.2 9.6 0.00 0.00 0.00 92 1004.5
20260508075525 51 254 5.2 9.6 0.00 0.00 0.00 92 1004.5
20260508075404 51 253 6.1 9.6 0.00 0.00 0.00 92 1004.3
20260508075308 52 253 6.1 9.6 0.00 0.00 0.00 92 1004.3
20260508075204 52 252 5.2 9.6 0.00 0.00 0.00 92 1004.4
20260508075125 51 253 5.2 9.6 0.00 0.00 0.00 93 1004.3
20260508075024 51 254 5.2 9.6 0.00 0.00 0.00 93 1004.4
20260508074904 51 251 5.2 9.6 0.00 0.00 0.00 93 1004.3
20260508074804 51 251 5.2 9.6 0.00 0.00 0.00 93 1004.3
20260508074704 51 252 5.2 9.6 0.00 0.00 0.00 93 1004.3
20260508074604 51 250 5.2 9.6 0.00 0.00 0.00 94 1004.3
20260508074504 51 250 5.2 9.6 0.00 0.00 0.00 95 1004.4
20260508074404 51 248 5.2 9.6 0.00 0.00 0.00 95 1004.3
20260508074324 51 249 5.2 7.8 0.00 0.00 0.00 95 1004.2
20260508074204 51 247 5.2 7.8 0.00 0.00 0.00 95 1004.3
20260508074103 51 244 5.2 7.8 0.00 0.00 0.00 96 1004.3
20260508074004 51 243 5.2 9.6 0.00 0.00 0.00 96 1004.3
20260508073903 51 243 5.2 9.6 0.00 0.00 0.00 96 1004.3
20260508073804 51 243 5.2 9.6 0.00 0.00 0.00 96 1004.3
20260508073703 51 241 5.2 11.3 0.00 0.00 0.00 96 1004.7
20260508073604 51 239 5.2 11.3 0.00 0.00 0.00 96 1004.3
20260508073504 51 238 5.2 11.3 0.00 0.00 0.00 96 1004.4
20260508073425 51 237 5.2 11.3 0.00 0.00 0.00 96 1004.3
20260508073304 51 235 5.2 11.3 0.00 0.00 0.00 96 1004.5
20260508073203 51 237 5.2 11.3 0.00 0.00 0.00 96 1004.1
20260508073104 51 238 5.2 11.3 0.00 0.00 0.00 96 1004.2
20260508073024 51 240 5.2 11.3 0.00 0.00 0.00 96 1004.2
20260508072904 51 238 6.1 11.3 0.00 0.00 0.00 96 1004.1
20260508072803 51 236 6.1 11.3 0.00 0.00 0.00 96 1004.3
20260508072704 51 236 6.1 11.3 0.00 0.00 0.00 96 1004.4
20260508072603 51 238 6.1 11.3 0.00 0.00 0.00 96 1004.4
20260508072504 50 238 5.2 11.3 0.00 0.00 0.00 96 1004.4
20260508072424 50 239 5.2 11.3 0.00 0.00 0.00 96 1004.2
20260508072307 50 239 5.2 11.3 0.00 0.00 0.00 96 1004.1
20260508072224 50 236 5.2 11.3 0.00 0.00 0.00 96 1004.3
20260508072104 50 235 5.2 11.3 0.00 0.00 0.00 96 1004.2
20260508072004 50 234 5.2 9.6 0.00 0.00 0.00 96 1004.3
20260508071904 50 235 5.2 11.3 0.00 0.00 0.00 97 1004.1
20260508071804 51 238 4.3 11.3 0.00 0.00 0.00 97 1004.3
20260508071703 51 238 4.3 11.3 0.00 0.00 0.00 97 1004.2
20260508071604 50 238 4.3 11.3 0.00 0.00 0.00 97 1004.2
20260508071504 50 238 4.3 11.3 0.00 0.00 0.00 98 1004.1
20260508071404 50 238 4.3 11.3 0.00 0.00 0.00 98 1004.1
20260508071304 50 239 4.3 11.3 0.00 0.00 0.00 98 1004.1
20260508071204 50 241 4.3 11.3 0.00 0.00 0.00 98 1003.9
20260508071104 50 240 4.3 11.3 0.00 0.00 0.00 98 1004.2
20260508071004 50 241 4.3 11.3 0.00 0.00 0.00 98 1004.0
20260508070903 50 240 4.3 11.3 0.00 0.00 0.00 98 1004.1
20260508070804 50 238 3.5 11.3 0.00 0.00 0.00 98 1004.0
20260508070704 50 240 3.5 7.8 0.00 0.00 0.00 98 1004.0
20260508070604 50 235 3.5 7.8 0.00 0.00 0.00 99 1004.1
20260508070525 50 236 3.5 7.8 0.00 0.00 0.00 98 1004.0
20260508070404 50 232 3.5 6.1 0.00 0.00 0.00 98 1003.8
20260508070304 50 229 3.5 6.1 0.00 0.00 0.00 99 1003.8
20260508070224 50 230 3.5 6.1 0.00 0.00 0.00 99 1003.7
20260508070104 49 226 3.5 6.1 0.00 0.00 0.00 99 1003.9
20260508070004 49 226 3.5 6.1 0.00 0.00 0.00 99 1003.9
20260508065904 49 227 3.5 6.1 0.00 0.00 0.00 99 1003.9
20260508065824 49 229 3.5 6.1 0.00 0.00 0.00 99 1003.9
20260508065725 49 228 3.5 6.1 0.00 0.00 0.00 99 1004.0
20260508065604 49 228 3.5 6.1 0.00 0.00 0.00 99 1003.9
20260508065504 49 228 3.5 6.1 0.00 0.00 0.00 99 1004.1
20260508065404 49 229 3.5 6.1 0.00 0.00 0.00 99 1004.0
20260508065306 49 230 3.5 6.1 0.00 0.00 0.00 99 1003.8
20260508065225 48 230 3.5 6.1 0.00 0.00 0.00 99 1003.8
20260508065104 48 229 3.5 6.1 0.00 0.00 0.00 99 1003.8
20260508065004 48 229 3.5 6.1 0.00 0.00 0.00 99 1003.9
20260508064925 48 228 3.5 6.1 0.00 0.00 0.00 99 1004.1
20260508064804 48 227 3.5 6.1 0.00 0.00 0.00 99 1003.8
20260508064704 48 226 3.5 6.1 0.00 0.00 0.00 99 1003.8
20260508064625 48 226 3.5 6.1 0.00 0.00 0.00 99 1003.7
20260508064525 48 229 3.5 6.1 0.00 0.00 0.00 99 1003.8
20260508064403 48 230 3.5 6.1 0.00 0.00 0.00 99 1003.8
20260508064304 48 231 3.5 6.1 0.00 0.00 0.00 99 1003.8
20260508064203 48 231 3.5 6.1 0.00 0.00 0.00 99 1003.8
20260508064104 48 234 3.5 6.1 0.00 0.00 0.00 99 1003.7
20260508064004 48 232 3.5 6.1 0.00 0.00 0.00 99 1003.8
20260508063904 48 233 3.5 6.1 0.00 0.00 0.00 99 1003.8
20260508063804 48 232 3.5 6.1 0.00 0.00 0.00 99 1003.6
20260508063703 48 232 2.6 6.1 0.00 0.00 0.00 99 1003.7
20260508063604 48 233 2.6 5.2 0.00 0.00 0.00 99 1003.8
20260508063504 48 229 2.6 5.2 0.00 0.00 0.00 99 1003.8
20260508063404 48 226 2.6 6.1 0.00 0.00 0.00 99 1003.8
20260508063304 48 227 3.5 6.1 0.00 0.00 0.00 99 1003.8
20260508063204 48 228 3.5 6.1 0.00 0.00 0.00 99 1003.6
20260508063103 48 226 2.6 6.1 0.00 0.00 0.00 99 1003.5
20260508063004 48 227 3.5 6.1 0.00 0.00 0.00 99 1003.9
20260508062903 48 225 3.5 6.1 0.00 0.00 0.00 99 1003.9
20260508062804 48 226 3.5 6.1 0.00 0.00 0.00 99 1003.9
20260508062703 48 228 3.5 6.1 0.00 0.00 0.00 99 1003.7
20260508062604 48 228 3.5 6.1 0.00 0.00 0.00 99 1003.7
20260508062504 48 229 3.5 6.1 0.00 0.00 0.00 99 1003.8
20260508062404 48 232 3.5 6.1 0.00 0.00 0.00 99 1003.6
20260508062325 48 232 3.5 5.2 0.00 0.00 0.00 99 1003.5
20260508062204 48 231 2.6 5.2 0.00 0.00 0.00 99 1003.6
20260508062104 48 231 2.6 5.2 0.00 0.00 0.00 99 1003.7
20260508062025 48 231 2.6 5.2 0.00 0.00 0.00 99 1003.8
20260508061904 48 235 2.6 5.2 0.00 0.00 0.00 99 1003.8
20260508061804 48 235 2.6 5.2 0.00 0.00 0.00 99 1003.6
20260508061704 48 236 2.6 5.2 0.00 0.00 0.00 99 1003.6
20260508061603 48 237 2.6 5.2 0.00 0.00 0.00 99 1003.7
20260508061504 48 238 2.6 5.2 0.00 0.00 0.00 99 1003.8
20260508061403 48 238 2.6 5.2 0.00 0.00 0.00 99 1003.6
20260508061304 48 237 2.6 5.2 0.00 0.00 0.00 99 1003.6
20260508061203 48 241 2.6 5.2 0.00 0.00 0.00 99 1003.8
20260508061104 48 243 2.6 3.5 0.00 0.00 0.00 99 1003.6
20260508061003 48 245 2.6 3.5 0.00 0.00 0.00 99 1003.6
20260508060904 48 244 2.6 3.5 0.00 0.00 0.00 99 1003.6
20260508060803 48 245 2.6 3.5 0.00 0.00 0.00 99 1003.3
20260508060704 48 246 1.7 3.5 0.00 0.00 0.00 99 1003.8
20260508060604 48 249 1.7 3.5 0.00 0.00 0.00 99 1003.7
20260508060504 47 248 1.7 3.5 0.00 0.00 0.00 99 1003.6
20260508060404 47 249 1.7 3.5 0.00 0.00 0.00 99 1003.5
20260508060304 47 249 1.7 3.5 0.00 0.00 0.00 99 1003.6
20260508060204 47 247 1.7 6.1 0.00 0.00 0.00 99 1003.5
20260508060105 47 244 1.7 6.1 0.00 0.00 0.00 99 1003.5
20260508060004 47 244 2.6 6.1 0.00 0.00 0.00 99 1003.6
20260508055904 47 246 2.6 6.1 0.00 0.00 0.00 99 1003.7
20260508055803 47 244 2.6 6.1 0.00 0.00 0.00 99 1003.5
20260508055704 47 242 2.6 6.1 0.00 0.00 0.00 99 1003.6
20260508055604 47 241 2.6 6.1 0.00 0.00 0.00 99 1003.5
20260508055524 47 241 2.6 6.1 0.00 0.00 0.00 99 1003.5
20260508055404 47 243 3.5 8.7 0.00 0.00 0.00 99 1003.5
20260508055306 47 241 3.5 8.7 0.00 0.00 0.00 99 1003.6
20260508055225 47 240 3.5 8.7 0.00 0.00 0.00 99 1003.4
20260508055103 47 238 4.3 8.7 0.00 0.00 0.00 99 1003.4
20260508055004 47 236 4.3 8.7 0.00 0.00 0.00 99 1003.5
20260508054903 47 234 4.3 8.7 0.00 0.00 0.00 99 1003.2
20260508054804 47 233 4.3 8.7 0.00 0.00 0.00 99 1003.5
20260508054703 47 236 4.3 8.7 0.00 0.00 0.00 99 1003.6
20260508054603 47 236 4.3 8.7 0.00 0.00 0.00 99 1003.4
20260508054504 47 234 4.3 8.7 0.00 0.00 0.00 99 1003.4
20260508054404 47 231 4.3 8.7 0.00 0.00 0.00 99 1003.3
20260508054304 47 231 4.3 8.7 0.00 0.00 0.00 99 1003.5
20260508054203 47 231 4.3 7.0 0.00 0.00 0.00 99 1003.5
20260508054104 47 234 3.5 7.0 0.00 0.00 0.00 99 1003.4
20260508054003 47 236 3.5 7.0 0.00 0.00 0.00 99 1003.2
20260508053925 47 235 3.5 7.0 0.00 0.00 0.00 99 1003.5
20260508053803 47 237 3.5 7.0 0.00 0.00 0.00 99 1003.4
20260508053704 47 233 3.5 7.0 0.00 0.00 0.00 99 1003.3
20260508053603 47 232 3.5 7.0 0.00 0.00 0.00 99 1003.3
20260508053504 47 233 3.5 6.1 0.00 0.00 0.00 99 1003.4
20260508053403 47 235 3.5 6.1 0.00 0.00 0.00 99 1003.2
20260508053325 47 235 3.5 6.1 0.00 0.00 0.00 99 1003.3
20260508053203 47 237 3.5 6.1 0.00 0.00 0.00 99 1003.1
20260508053104 47 235 3.5 6.1 0.00 0.00 0.00 99 1003.4
20260508053003 47 234 3.5 6.1 0.00 0.00 0.00 99 1003.1
20260508052903 47 234 3.5 6.1 0.00 0.00 0.00 99 1003.1
20260508052804 47 234 3.5 7.0 0.00 0.00 0.00 99 1003.1
20260508052724 47 236 3.5 7.0 0.00 0.00 0.00 99 1003.1
20260508052604 47 239 4.3 7.0 0.00 0.00 0.00 99 1003.3
20260508052524 47 240 4.3 7.0 0.00 0.00 0.00 99 1003.1
20260508052404 47 239 4.3 7.0 0.00 0.00 0.00 99 1003.0
20260508052324 47 240 4.3 7.0 0.00 0.00 0.00 99 1003.1
20260508052204 47 240 4.3 9.6 0.00 0.00 0.00 99 1003.3
20260508052124 47 241 4.3 9.6 0.00 0.00 0.00 99 1003.0
20260508052024 47 243 4.3 9.6 0.00 0.00 0.00 99 1003.2
20260508051904 47 244 4.3 9.6 0.00 0.00 0.00 98 1002.9
20260508051803 47 245 4.3 9.6 0.00 0.00 0.00 98 1003.0
20260508051703 47 244 4.3 9.6 0.00 0.00 0.00 98 1002.9
20260508051603 48 242 4.3 9.6 0.00 0.00 0.00 98 1003.0
20260508051504 48 242 4.3 9.6 0.00 0.00 0.00 98 1003.0
20260508051404 48 241 4.3 9.6 0.00 0.00 0.00 98 1003.3
20260508051304 48 242 4.3 9.6 0.00 0.00 0.00 98 1002.9
20260508051203 48 241 4.3 9.6 0.00 0.00 0.00 97 1003.0
20260508051104 48 237 4.3 8.7 0.00 0.00 0.00 97 1002.9
20260508051003 48 239 4.3 8.7 0.00 0.00 0.00 97 1003.0
20260508050904 48 238 4.3 8.7 0.00 0.00 0.00 97 1002.9
20260508050825 48 239 4.3 8.7 0.00 0.00 0.00 97 1002.9
20260508050703 48 240 4.3 8.7 0.00 0.00 0.00 96 1003.1
20260508050603 48 239 4.3 8.7 0.00 0.00 0.00 96 1002.8
20260508050524 48 240 4.3 8.7 0.00 0.00 0.00 96 1003.0
20260508050404 48 242 4.3 8.7 0.00 0.00 0.00 96 1003.1
20260508050303 48 241 4.3 8.7 0.00 0.00 0.00 96 1002.8
20260508050204 48 241 4.3 8.7 0.00 0.00 0.00 95 1002.9
20260508050104 48 242 4.3 8.7 0.00 0.00 0.00 95 1002.8
20260508050003 48 242 4.3 8.7 0.00 0.00 0.00 95 1003.1
20260508045904 48 245 4.3 8.7 0.00 0.00 0.00 95 1002.7
20260508045803 48 246 4.3 9.6 0.00 0.00 0.00 95 1002.9
20260508045725 48 245 4.3 9.6 0.00 0.00 0.00 95 1002.9
20260508045603 48 244 4.3 9.6 0.00 0.00 0.00 95 1002.8
20260508045525 48 245 4.3 9.6 0.00 0.00 0.00 95 1002.8
20260508045403 48 242 4.3 9.6 0.00 0.00 0.00 95 1003.1
20260508045306 48 243 4.3 9.6 0.00 0.00 0.00 95 1002.7
20260508045203 48 246 4.3 9.6 0.00 0.00 0.00 95 1002.7
20260508045125 48 249 4.3 9.6 0.00 0.00 0.00 95 1002.9
20260508045004 48 251 4.3 9.6 0.00 0.00 0.00 95 1002.7
20260508044925 48 252 4.3 9.6 0.00 0.00 0.00 95 1002.7
20260508044804 48 253 4.3 9.6 0.00 0.00 0.00 95 1002.8
20260508044725 48 255 4.3 9.6 0.00 0.00 0.00 95 1002.9
20260508044604 48 254 4.3 9.6 0.00 0.00 0.00 95 1002.8
20260508044503 48 254 4.3 9.6 0.00 0.00 0.00 95 1002.7
20260508044424 48 256 4.3 9.6 0.00 0.00 0.00 95 1002.7
20260508044303 48 257 4.3 9.6 0.00 0.00 0.00 95 1002.9
20260508044204 48 258 4.3 9.6 0.00 0.00 0.00 95 1002.7
20260508044125 48 256 4.3 9.6 0.00 0.00 0.00 95 1002.9
20260508044004 48 254 4.3 9.6 0.00 0.00 0.00 95 1002.7
20260508043903 48 251 5.2 9.6 0.00 0.00 0.00 95 1002.7
20260508043804 48 250 5.2 9.6 0.00 0.00 0.00 95 1002.8
20260508043703 48 248 5.2 9.6 0.00 0.00 0.00 95 1002.9
20260508043603 48 246 5.2 9.6 0.00 0.00 0.00 95 1002.7
20260508043504 48 245 5.2 9.6 0.00 0.00 0.00 95 1002.9
20260508043403 48 243 4.3 7.8 0.00 0.00 0.00 95 1002.9
20260508043303 48 245 5.2 7.8 0.00 0.00 0.00 95 1002.8
20260508043224 48 243 5.2 7.8 0.00 0.00 0.00 95 1002.8
20260508043125 48 246 5.2 7.8 0.00 0.00 0.00 95 1002.9
20260508043003 48 244 5.2 8.7 0.00 0.00 0.00 95 1002.6
20260508042904 48 242 5.2 8.7 0.00 0.00 0.00 95 1002.9
20260508042803 48 241 5.2 8.7 0.00 0.00 0.00 95 1002.5
20260508042703 48 240 5.2 8.7 0.00 0.00 0.00 95 1002.7
20260508042604 48 241 4.3 8.7 0.00 0.00 0.00 95 1002.7
20260508042503 48 242 5.2 8.7 0.00 0.00 0.00 95 1002.7
20260508042403 48 244 5.2 8.7 0.00 0.00 0.00 95 1002.6
20260508042306 48 241 5.2 8.7 0.00 0.00 0.00 95 1002.7
20260508042203 48 242 5.2 8.7 0.00 0.00 0.00 95 1002.5
20260508042103 48 243 5.2 8.7 0.00 0.00 0.00 95 1002.5
20260508042004 48 244 4.3 8.7 0.00 0.00 0.00 95 1002.7
20260508041903 47 243 4.3 8.7 0.00 0.00 0.00 95 1002.6
20260508041804 47 244 4.3 8.7 0.00 0.00 0.00 95 1002.6
20260508041703 47 244 4.3 8.7 0.00 0.00 0.00 95 1002.6
20260508041604 47 242 4.3 8.7 0.00 0.00 0.00 95 1002.5
20260508041504 47 244 4.3 8.7 0.00 0.00 0.00 95 1002.6
20260508041425 47 246 4.3 8.7 0.00 0.00 0.00 95 1002.7
20260508041303 47 246 3.5 8.7 0.00 0.00 0.00 95 1002.7
20260508041203 47 246 4.3 8.7 0.00 0.00 0.00 95 1002.9
20260508041104 47 245 4.3 8.7 0.00 0.00 0.00 95 1002.8
20260508041024 47 245 4.3 8.7 0.00 0.00 0.00 95 1002.6
20260508040925 47 246 4.3 8.7 0.00 0.00 0.00 94 1002.6
20260508040824 47 247 4.3 8.7 0.00 0.00 0.00 94 1002.6
20260508040725 47 248 4.3 8.7 0.00 0.00 0.00 94 1002.7
20260508040603 47 252 5.2 7.8 0.00 0.00 0.00 94 1002.6
20260508040504 47 250 5.2 7.8 0.00 0.00 0.00 94 1002.6
20260508040403 47 248 5.2 7.8 0.00 0.00 0.00 94 1002.7
20260508040304 47 247 5.2 8.7 0.00 0.00 0.00 94 1002.6
20260508040203 47 243 5.2 8.7 0.00 0.00 0.00 94 1002.5
20260508040104 47 241 5.2 8.7 0.00 0.00 0.00 94 1002.5
20260508040004 47 239 6.1 8.7 0.00 0.00 0.00 94 1002.5
20260508035903 47 241 6.1 8.7 0.00 0.00 0.00 94 1002.6
20260508035804 47 240 6.1 8.7 0.00 0.00 0.00 94 1002.6
20260508035703 47 240 6.1 8.7 0.00 0.00 0.00 94 1002.3
20260508035625 47 238 6.1 8.7 0.00 0.00 0.00 94 1002.4
20260508035503 47 238 6.1 9.6 0.00 0.00 0.00 93 1002.4
20260508035404 47 239 6.1 9.6 0.00 0.00 0.00 93 1002.6
20260508035306 47 240 6.1 9.6 0.00 0.00 0.00 94 1002.3
20260508035204 47 244 6.1 9.6 0.00 0.00 0.00 93 1002.4
20260508035103 47 244 6.1 9.6 0.00 0.00 0.00 93 1002.6
20260508035003 47 245 6.1 9.6 0.00 0.00 0.00 93 1002.4
20260508034904 47 243 6.1 9.6 0.00 0.00 0.00 93 1002.7
20260508034803 47 244 5.2 9.6 0.00 0.00 0.00 93 1002.5
20260508034704 47 240 5.2 9.6 0.00 0.00 0.00 93 1002.5
20260508034603 47 239 5.2 9.6 0.00 0.00 0.00 93 1002.5
20260508034504 47 239 5.2 9.6 0.00 0.00 0.00 93 1002.5
20260508034403 47 239 6.1 9.6 0.00 0.00 0.00 93 1002.6
20260508034303 47 241 6.1 9.6 0.00 0.00 0.00 93 1002.3
20260508034224 47 237 6.1 9.6 0.00 0.00 0.00 93 1002.4
20260508034103 47 237 6.1 9.6 0.00 0.00 0.00 93 1002.4
20260508034004 47 238 6.1 9.6 0.00 0.00 0.00 93 1002.6
20260508033903 47 238 6.1 9.6 0.00 0.00 0.00 93 1002.4
20260508033803 47 237 6.1 9.6 0.00 0.00 0.00 93 1002.5
20260508033724 47 236 6.1 9.6 0.00 0.00 0.00 93 1002.3
20260508033604 47 238 6.1 9.6 0.00 0.00 0.00 93 1002.1
20260508033524 47 237 6.1 9.6 0.00 0.00 0.00 93 1002.4
20260508033403 47 237 5.2 9.6 0.00 0.00 0.00 94 1002.4
20260508033303 47 236 5.2 9.6 0.00 0.00 0.00 94 1002.4
20260508033203 47 237 5.2 9.6 0.00 0.00 0.00 94 1002.2
20260508033103 47 239 5.2 9.6 0.00 0.00 0.00 94 1002.3
20260508033003 47 239 5.2 9.6 0.00 0.00 0.00 94 1002.4
20260508032904 47 239 5.2 11.3 0.00 0.00 0.00 94 1002.5
20260508032803 47 238 5.2 11.3 0.00 0.00 0.00 94 1002.5
20260508032704 48 238 6.1 11.3 0.00 0.00 0.00 94 1002.5
20260508032603 48 238 6.1 11.3 0.00 0.00 0.00 94 1002.5
20260508032504 48 238 6.1 11.3 0.00 0.00 0.00 94 1002.5
20260508032403 48 237 6.1 11.3 0.00 0.00 0.00 94 1002.4
20260508032306 48 237 6.1 11.3 0.00 0.00 0.00 94 1002.4
20260508032203 48 236 6.1 11.3 0.00 0.00 0.00 94 1002.5
20260508032103 48 232 6.1 11.3 0.00 0.00 0.00 93 1002.5
20260508032003 48 232 6.1 11.3 0.00 0.00 0.00 93 1002.5
20260508031903 48 230 5.2 11.3 0.00 0.00 0.00 93 1002.6
20260508031804 48 230 5.2 11.3 0.00 0.00 0.00 93 1002.5
20260508031703 48 231 5.2 11.3 0.00 0.00 0.00 93 1002.5
20260508031604 48 231 5.2 8.7 0.00 0.00 0.00 93 1002.4
20260508031504 48 231 5.2 8.7 0.00 0.00 0.00 93 1002.4
20260508031403 48 231 5.2 8.7 0.00 0.00 0.00 92 1002.3
20260508031303 48 229 5.2 8.7 0.00 0.00 0.00 92 1002.3
20260508031203 48 228 5.2 8.7 0.00 0.00 0.00 92 1002.4
20260508031103 48 228 5.2 8.7 0.00 0.00 0.00 92 1002.3
20260508031003 48 229 5.2 8.7 0.00 0.00 0.00 92 1002.5
20260508030904 48 231 5.2 8.7 0.00 0.00 0.00 92 1002.4
20260508030803 48 229 6.1 9.6 0.00 0.00 0.00 91 1002.5
20260508030703 48 227 6.1 9.6 0.00 0.00 0.00 91 1002.4
20260508030624 48 228 6.1 9.6 0.00 0.00 0.00 91 1002.3
20260508030503 48 229 6.1 9.6 0.00 0.00 0.00 91 1002.5
20260508030404 48 230 6.1 9.6 0.00 0.00 0.00 91 1002.5
20260508030303 48 232 6.1 11.3 0.00 0.00 0.00 91 1002.4
20260508030203 48 234 6.1 11.3 0.00 0.00 0.00 90 1002.4
20260508030125 48 235 6.1 11.3 0.00 0.00 0.00 90 1002.4
20260508030025 48 237 6.1 11.3 0.00 0.00 0.00 90 1002.5
20260508025903 48 236 6.1 11.3 0.00 0.00 0.00 90 1002.2
20260508025804 48 236 5.2 11.3 0.00 0.00 0.00 90 1002.4
20260508025703 48 239 5.2 11.3 0.00 0.00 0.00 90 1002.3
20260508025603 48 239 5.2 11.3 0.00 0.00 0.00 90 1002.4
20260508025504 48 239 5.2 11.3 0.00 0.00 0.00 90 1002.5
20260508025403 47 237 5.2 11.3 0.00 0.00 0.00 90 1002.3
20260508025306 47 237 5.2 11.3 0.00 0.00 0.00 90 1002.4
20260508025203 47 239 4.3 8.7 0.00 0.00 0.00 90 1002.4
20260508025104 47 237 4.3 8.7 0.00 0.00 0.00 90 1002.4
20260508025003 47 236 4.3 8.7 0.00 0.00 0.00 90 1002.5
20260508024925 47 234 4.3 8.7 0.00 0.00 0.00 90 1002.6
20260508024803 47 235 5.2 8.7 0.00 0.00 0.00 90 1002.4
20260508024704 47 236 4.3 9.6 0.00 0.00 0.00 90 1002.5
20260508024603 47 239 5.2 9.6 0.00 0.00 0.00 90 1002.5
20260508024525 47 238 5.2 9.6 0.00 0.00 0.00 90 1002.3
20260508024403 47 240 4.3 9.6 0.00 0.00 0.00 90 1002.4
20260508024303 47 239 4.3 9.6 0.00 0.00 0.00 90 1002.2
20260508024224 47 239 4.3 9.6 0.00 0.00 0.00 90 1002.3
20260508024103 47 239 4.3 9.6 0.00 0.00 0.00 91 1002.4
20260508024025 47 241 4.3 9.6 0.00 0.00 0.00 90 1002.4
20260508023903 47 244 4.3 9.6 0.00 0.00 0.00 90 1002.6
20260508023803 47 245 4.3 9.6 0.00 0.00 0.00 91 1002.5
20260508023724 47 247 4.3 9.6 0.00 0.00 0.00 91 1002.3
20260508023604 47 244 4.3 7.0 0.00 0.00 0.00 91 1002.3
20260508023503 47 243 4.3 7.0 0.00 0.00 0.00 91 1002.6
20260508023404 47 242 3.5 7.0 0.00 0.00 0.00 91 1002.6
20260508023304 47 246 3.5 7.0 0.00 0.00 0.00 91 1002.3
20260508023203 47 247 3.5 7.0 0.00 0.00 0.00 91 1002.3
20260508023124 47 249 3.5 6.1 0.00 0.00 0.00 92 1002.3
20260508023003 47 247 3.5 7.0 0.00 0.00 0.00 91 1002.4
20260508022904 47 249 3.5 7.0 0.00 0.00 0.00 92 1002.4
20260508022803 47 250 3.5 7.0 0.00 0.00 0.00 91 1002.4
20260508022703 47 248 3.5 7.0 0.00 0.00 0.00 91 1002.3
20260508022603 47 250 3.5 7.8 0.00 0.00 0.00 92 1002.3
20260508022503 47 248 3.5 7.8 0.00 0.00 0.00 92 1002.5
20260508022403 47 246 4.3 7.8 0.00 0.00 0.00 91 1002.4
20260508022306 47 245 4.3 7.8 0.00 0.00 0.00 91 1002.3
20260508022224 47 242 4.3 7.8 0.00 0.00 0.00 91 1002.4
20260508022103 47 238 4.3 7.8 0.00 0.00 0.00 91 1002.7
20260508022003 47 237 4.3 7.8 0.00 0.00 0.00 91 1002.4
20260508021903 47 235 4.3 7.8 0.00 0.00 0.00 91 1002.4
20260508021824 47 232 4.3 7.8 0.00 0.00 0.00 91 1002.3
20260508021703 47 231 4.3 7.8 0.00 0.00 0.00 91 1002.4
20260508021603 47 230 4.3 7.8 0.00 0.00 0.00 91 1002.3
20260508021504 47 228 4.3 7.8 0.00 0.00 0.00 91 1002.1
20260508021403 47 226 4.3 7.8 0.00 0.00 0.00 91 1002.3
20260508021303 47 224 4.3 7.8 0.00 0.00 0.00 92 1002.3
20260508021203 47 223 4.3 7.8 0.00 0.00 0.00 92 1002.3
20260508021103 47 224 4.3 7.8 0.00 0.00 0.00 92 1002.4
20260508021003 47 223 4.3 7.8 0.00 0.00 0.00 92 1002.3
20260508020903 47 220 3.5 7.8 0.00 0.00 0.00 92 1002.2
20260508020803 47 220 3.5 7.0 0.00 0.00 0.00 92 1002.4
20260508020703 47 220 3.5 7.0 0.00 0.00 0.00 92 1001.9
20260508020604 47 220 3.5 7.0 0.00 0.00 0.00 92 1002.2
20260508020503 47 221 3.5 7.0 0.00 0.00 0.00 92 1002.3
20260508020403 47 221 3.5 7.0 0.00 0.00 0.00 92 1002.1
20260508020303 47 222 3.5 7.0 0.00 0.00 0.00 92 1002.1
20260508020203 47 226 3.5 7.0 0.00 0.00 0.00 92 1002.2
20260508020124 47 226 3.5 7.8 0.00 0.00 0.00 92 1002.0
20260508020004 48 226 3.5 7.8 0.00 0.00 0.00 92 1002.3
20260508015903 48 228 3.5 7.8 0.00 0.00 0.00 91 1002.2
20260508015803 48 229 3.5 7.8 0.00 0.00 0.00 91 1002.2
20260508015704 48 232 3.5 7.8 0.00 0.00 0.00 91 1002.2
20260508015603 48 231 3.5 7.8 0.00 0.00 0.00 91 1002.2
20260508015504 48 230 3.5 7.8 0.00 0.00 0.00 91 1002.2
20260508015404 48 232 4.3 7.8 0.00 0.00 0.00 91 1002.3
20260508015306 48 233 4.3 7.8 0.00 0.00 0.00 91 1002.2
20260508015203 48 234 4.3 7.8 0.00 0.00 0.00 91 1002.1
20260508015103 48 235 4.3 7.8 0.00 0.00 0.00 91 1002.3
20260508015024 48 236 4.3 7.8 0.00 0.00 0.00 91 1002.6
20260508014925 48 238 4.3 7.0 0.00 0.00 0.00 91 1002.3
20260508014803 48 241 4.3 7.8 0.00 0.00 0.00 91 1002.5
20260508014703 48 240 4.3 8.7 0.00 0.00 0.00 91 1002.3
20260508014603 48 242 4.3 8.7 0.00 0.00 0.00 91 1002.4
20260508014504 48 244 4.3 8.7 0.00 0.00 0.00 91 1002.2
20260508014403 48 244 4.3 8.7 0.00 0.00 0.00 91 1002.2
20260508014304 48 245 4.3 8.7 0.00 0.00 0.00 91 1002.3
20260508014203 48 244 5.2 8.7 0.00 0.00 0.00 90 1002.3
20260508014103 48 242 5.2 8.7 0.00 0.00 0.00 90 1002.4
20260508014004 48 241 5.2 8.7 0.00 0.00 0.00 90 1002.3
20260508013903 48 241 5.2 8.7 0.00 0.00 0.00 90 1002.5
20260508013803 48 242 5.2 8.7 0.00 0.00 0.00 90 1002.3
20260508013703 48 242 5.2 8.7 0.00 0.00 0.00 90 1002.5
20260508013604 48 241 5.2 8.7 0.00 0.00 0.00 90 1002.4
20260508013503 48 241 5.2 8.7 0.00 0.00 0.00 90 1002.4
20260508013424 48 242 5.2 8.7 0.00 0.00 0.00 90 1002.5
20260508013324 48 241 5.2 7.8 0.00 0.00 0.00 90 1002.4
20260508013203 48 240 5.2 7.8 0.00 0.00 0.00 90 1002.4
20260508013103 48 240 4.3 7.8 0.00 0.00 0.00 91 1002.4
20260508013003 48 241 4.3 7.8 0.00 0.00 0.00 90 1002.6
20260508012925 48 240 4.3 7.8 0.00 0.00 0.00 90 1002.4
20260508012803 48 239 4.3 7.8 0.00 0.00 0.00 90 1002.6
20260508012703 48 238 4.3 7.8 0.00 0.00 0.00 90 1002.5
20260508012624 48 239 4.3 7.8 0.00 0.00 0.00 90 1002.5
20260508012504 48 239 4.3 7.8 0.00 0.00 0.00 90 1002.4
20260508012424 48 238 4.3 7.0 0.00 0.00 0.00 90 1002.4
20260508012307 48 241 4.3 7.0 0.00 0.00 0.00 90 1002.3
20260508012203 48 243 4.3 7.0 0.00 0.00 0.00 90 1002.4
20260508012103 48 243 4.3 7.0 0.00 0.00 0.00 90 1002.4
20260508012004 48 245 4.3 7.0 0.00 0.00 0.00 90 1002.5
20260508011903 48 246 4.3 7.0 0.00 0.00 0.00 90 1002.5
20260508011825 48 246 4.3 7.0 0.00 0.00 0.00 90 1002.5
20260508011703 48 250 4.3 7.0 0.00 0.00 0.00 90 1002.7
20260508011603 48 249 4.3 7.0 0.00 0.00 0.00 90 1002.6
20260508011503 48 250 4.3 7.0 0.00 0.00 0.00 90 1002.6
20260508011403 48 251 4.3 7.0 0.00 0.00 0.00 90 1002.7
20260508011303 48 251 4.3 7.0 0.00 0.00 0.00 90 1002.5
20260508011204 48 252 4.3 7.0 0.00 0.00 0.00 90 1002.6
20260508011103 48 252 4.3 7.8 0.00 0.00 0.00 90 1002.8
20260508011003 48 251 4.3 7.8 0.00 0.00 0.00 90 1002.5
20260508010903 48 250 4.3 7.8 0.00 0.00 0.00 90 1002.5
20260508010803 48 250 4.3 7.8 0.00 0.00 0.00 90 1002.6
20260508010703 48 249 4.3 7.8 0.00 0.00 0.00 90 1002.4
20260508010624 48 248 4.3 7.8 0.00 0.00 0.00 90 1002.4
20260508010503 48 246 3.5 7.8 0.00 0.00 0.00 90 1002.5
20260508010403 48 246 3.5 7.8 0.00 0.00 0.00 90 1002.6
20260508010324 48 247 3.5 7.8 0.00 0.00 0.00 90 1002.8
20260508010203 48 248 3.5 7.8 0.00 0.00 0.00 90 1002.6
20260508010103 48 249 3.5 7.8 0.00 0.00 0.00 90 1002.5
20260508010003 48 250 3.5 7.0 0.00 0.00 0.00 90 1002.4
20260508005903 48 250 3.5 7.0 0.00 0.00 0.00 90 1002.5
20260508005803 48 249 3.5 7.0 0.00 0.00 0.00 90 1002.6
20260508005703 48 250 3.5 7.0 0.00 0.00 0.00 90 1002.5
20260508005624 48 249 3.5 7.0 0.00 0.00 0.00 90 1002.6
20260508005503 48 249 3.5 7.0 0.00 0.00 0.00 90 1002.5
20260508005403 48 247 3.5 7.0 0.00 0.00 0.00 90 1002.5
20260508005305 48 247 3.5 7.0 0.00 0.00 0.00 90 1002.5
20260508005203 48 243 3.5 7.0 0.00 0.00 0.00 90 1002.5
20260508005103 48 243 3.5 7.0 0.00 0.00 0.00 90 1002.6
20260508005024 48 242 3.5 6.1 0.00 0.00 0.00 90 1002.8
20260508004903 48 243 3.5 6.1 0.00 0.00 0.00 90 1002.6
20260508004803 48 243 3.5 6.1 0.00 0.00 0.00 90 1002.6
20260508004703 48 242 3.5 6.1 0.00 0.00 0.00 90 1002.7
20260508004604 48 241 3.5 6.1 0.00 0.00 0.00 90 1002.4
20260508004503 48 239 3.5 6.1 0.00 0.00 0.00 90 1002.4
20260508004403 48 238 3.5 6.1 0.00 0.00 0.00 90 1002.4
20260508004324 48 236 3.5 6.1 0.00 0.00 0.00 90 1002.5
20260508004203 48 237 2.6 6.1 0.00 0.00 0.00 91 1002.7
20260508004124 48 238 2.6 6.1 0.00 0.00 0.00 91 1002.7
20260508004003 48 233 3.5 6.1 0.00 0.00 0.00 91 1002.6
20260508003903 48 235 2.6 7.0 0.00 0.00 0.00 91 1002.3
20260508003803 48 235 3.5 7.0 0.00 0.00 0.00 91 1002.7
20260508003703 48 235 3.5 7.0 0.00 0.00 0.00 91 1002.4
20260508003624 48 235 3.5 7.0 0.00 0.00 0.00 91 1002.8
20260508003503 48 236 3.5 7.0 0.00 0.00 0.00 91 1002.4
20260508003403 48 235 3.5 7.0 0.00 0.00 0.00 91 1002.6
20260508003303 48 234 3.5 7.0 0.00 0.00 0.00 91 1002.5
20260508003203 48 234 4.3 7.0 0.00 0.00 0.00 90 1002.5
20260508003103 48 232 3.5 7.0 0.00 0.00 0.00 90 1002.4
20260508003024 48 232 4.3 7.0 0.00 0.00 0.00 90 1002.4
20260508002903 48 230 3.5 7.0 0.00 0.00 0.00 90 1002.6
20260508002803 48 226 3.5 7.0 0.00 0.00 0.00 91 1002.4
20260508002703 48 222 3.5 7.0 0.00 0.00 0.00 91 1002.4
20260508002603 48 222 3.5 7.0 0.00 0.00 0.00 91 1002.4
20260508002503 48 223 3.5 7.0 0.00 0.00 0.00 91 1002.6
20260508002424 47 223 3.5 7.0 0.00 0.00 0.00 91 1002.5
20260508002306 47 226 3.5 6.1 0.00 0.00 0.00 91 1002.5
20260508002203 47 225 3.5 6.1 0.00 0.00 0.00 91 1002.5
20260508002103 47 228 3.5 6.1 0.00 0.00 0.00 91 1002.6
20260508002003 47 230 2.6 6.1 0.00 0.00 0.00 91 1002.6
20260508001924 47 231 3.5 6.1 0.00 0.00 0.00 91 1002.5
20260508001803 47 235 3.5 6.1 0.00 0.00 0.00 91 1002.4
20260508001703 47 239 3.5 6.1 0.00 0.00 0.00 91 1002.4
20260508001624 47 240 3.5 6.1 0.00 0.00 0.00 91 1002.6
20260508001504 47 243 3.5 6.1 0.00 0.00 0.00 91 1002.6
20260508001403 47 244 3.5 6.1 0.00 0.00 0.00 91 1002.4
20260508001303 47 245 3.5 6.1 0.00 0.00 0.00 91 1002.5
20260508001203 47 246 3.5 6.1 0.00 0.00 0.00 91 1002.8
20260508001103 47 247 3.5 6.1 0.00 0.00 0.00 91 1002.6
20260508001003 47 247 3.5 6.1 0.00 0.00 0.00 91 1002.5
20260508000924 47 248 2.6 6.1 0.00 0.00 0.00 91 1002.6
20260508000803 47 247 2.6 6.1 0.00 0.00 0.00 91 1002.6
20260508000703 47 247 2.6 6.1 0.00 0.00 0.00 91 1002.5
20260508000603 47 248 2.6 6.1 0.00 0.00 0.00 91 1002.4
20260508000503 47 247 2.6 6.1 0.00 0.00 0.00 91 1002.4
20260508000404 47 247 2.6 6.1 0.00 0.00 0.00 90 1002.8
20260508000305 47 246 2.6 6.1 0.00 0.00 0.00 90 1002.5
20260508000204 47 247 2.6 6.1 0.00 0.00 0.00 90 1002.6
20260508000003 47 244 2.6 5.2 0.00 0.00 0.00 90 1002.7
20260507235904 47 243 2.6 5.2 0.00 0.00 0.00 90 1002.5
20260507235803 47 241 2.6 5.2 0.00 0.00 0.00 90 1002.6
20260507235703 47 240 2.6 5.2 0.00 0.00 0.00 90 1002.5
20260507235603 47 238 2.6 5.2 0.00 0.00 0.00 90 1002.5
20260507235503 47 238 2.6 5.2 0.00 0.00 0.00 90 1002.5
20260507235403 47 238 2.6 5.2 0.00 0.00 0.00 90 1002.6
20260507235306 47 237 2.6 5.2 0.00 0.00 0.00 90 1002.3
20260507235203 47 235 2.6 5.2 0.00 0.00 0.00 90 1002.6
20260507235124 47 234 2.6 5.2 0.00 0.00 0.00 90 1002.7
20260507235004 47 234 2.6 5.2 0.00 0.00 0.00 90 1002.5
20260507234903 47 234 2.6 5.2 0.00 0.00 0.00 90 1002.6
20260507234825 47 235 2.6 5.2 0.00 0.00 0.00 90 1002.7
20260507234703 47 233 2.6 6.1 0.00 0.00 0.00 91 1002.6
20260507234624 47 234 3.5 6.1 0.00 0.00 0.00 91 1002.5
20260507234503 47 233 3.5 6.1 0.00 0.00 0.00 91 1002.3
20260507234403 47 232 3.5 6.1 0.00 0.00 0.00 91 1002.5
20260507234303 47 234 3.5 6.1 0.00 0.00 0.00 91 1002.5
20260507234203 47 235 3.5 6.1 0.00 0.00 0.00 91 1002.3
20260507234103 47 234 3.5 6.1 0.00 0.00 0.00 91 1002.3
20260507234003 47 233 3.5 6.1 0.00 0.00 0.00 91 1002.4
20260507233904 47 236 3.5 6.1 0.00 0.00 0.00 91 1002.4
20260507233824 47 234 3.5 7.0 0.00 0.00 0.00 91 1002.4
20260507233703 47 233 3.5 7.0 0.00 0.00 0.00 91 1002.5
20260507233603 47 231 3.5 7.0 0.00 0.00 0.00 91 1002.5
20260507233503 47 228 3.5 7.0 0.00 0.00 0.00 91 1002.5
20260507233403 47 226 3.5 7.0 0.00 0.00 0.00 91 1002.5
20260507233303 47 226 3.5 7.0 0.00 0.00 0.00 91 1002.5
20260507233203 47 222 3.5 7.0 0.00 0.00 0.00 91 1002.3
20260507233103 47 222 3.5 7.0 0.00 0.00 0.00 91 1002.3
20260507233003 47 221 3.5 7.0 0.00 0.00 0.00 92 1002.3
20260507232903 47 220 3.5 7.0 0.00 0.00 0.00 92 1002.3
20260507232803 47 220 3.5 7.0 0.00 0.00 0.00 92 1002.2
20260507232703 47 219 3.5 6.1 0.00 0.00 0.00 92 1002.2
20260507232603 47 220 3.5 6.1 0.00 0.00 0.00 91 1002.3
20260507232503 47 223 3.5 6.1 0.00 0.00 0.00 91 1002.3
20260507232424 47 226 3.5 6.1 0.00 0.00 0.00 91 1002.4
20260507232306 47 223 3.5 6.1 0.00 0.00 0.00 91 1001.9
20260507232203 47 223 3.5 6.1 0.00 0.00 0.00 91 1002.1
20260507232103 47 225 3.5 6.1 0.00 0.00 0.00 92 1002.4
20260507232003 47 226 3.5 6.1 0.00 0.00 0.00 92 1002.4
20260507231903 47 227 3.5 6.1 0.00 0.00 0.00 92 1002.5
20260507231803 47 224 2.6 5.2 0.00 0.00 0.00 92 1002.3
20260507231703 47 224 2.6 5.2 0.00 0.00 0.00 92 1002.3
20260507231624 47 226 2.6 5.2 0.00 0.00 0.00 92 1002.3
20260507231524 47 225 2.6 5.2 0.00 0.00 0.00 92 1002.3
20260507231403 47 228 2.6 5.2 0.00 0.00 0.00 92 1002.4
20260507231303 47 230 2.6 5.2 0.00 0.00 0.00 92 1002.3
20260507231203 47 230 2.6 5.2 0.00 0.00 0.00 92 1002.5
20260507231103 47 232 2.6 3.5 0.00 0.00 0.00 92 1002.5
20260507231003 47 231 2.6 3.5 0.00 0.00 0.00 92 1002.1
20260507230903 47 228 2.6 3.5 0.00 0.00 0.00 92 1002.4
20260507230824 47 225 1.7 3.5 0.00 0.00 0.00 92 1002.1
20260507230703 47 229 2.6 3.5 0.00 0.00 0.00 92 1002.2
20260507230603 47 227 2.6 6.1 0.00 0.00 0.00 92 1002.1
20260507230503 47 224 2.6 7.0 0.00 0.00 0.00 92 1002.1
20260507230403 47 219 2.6 7.0 0.00 0.00 0.00 92 1002.3
20260507230303 47 218 2.6 7.0 0.00 0.00 0.00 92 1002.1
20260507230203 47 219 2.6 7.0 0.00 0.00 0.00 92 1002.1
20260507230003 47 217 2.6 7.0 0.00 0.00 0.00 92 1002.1
20260507225903 47 219 2.6 7.0 0.00 0.00 0.00 92 1002.1
20260507225803 47 220 2.6 7.0 0.00 0.00 0.00 92 1002.2
20260507225703 47 221 2.6 7.0 0.00 0.00 0.00 92 1002.2
20260507225624 47 220 3.5 7.0 0.00 0.00 0.00 92 1002.3
20260507225503 47 222 2.6 7.0 0.00 0.00 0.00 92 1002.3
20260507225403 47 223 2.6 6.1 0.00 0.00 0.00 92 1002.3
20260507225324 47 224 2.6 6.1 0.00 0.00 0.00 92 1002.3
20260507225203 47 226 2.6 6.1 0.00 0.00 0.00 91 1002.1
20260507225103 47 228 2.6 6.1 0.00 0.00 0.00 91 1002.2
20260507225024 47 229 2.6 6.1 0.00 0.00 0.00 91 1002.2
20260507224924 47 230 2.6 6.1 0.00 0.00 0.00 91 1002.2
20260507224803 47 231 2.6 6.1 0.00 0.00 0.00 91 1002.1
20260507224703 47 229 2.6 6.1 0.00 0.00 0.00 91 1002.4
20260507224604 47 232 2.6 5.2 0.00 0.00 0.00 91 1002.2
20260507224504 47 233 2.6 5.2 0.00 0.00 0.00 91 1002.3
20260507224403 47 233 2.6 5.2 0.00 0.00 0.00 91 1002.2
20260507224303 47 233 2.6 5.2 0.00 0.00 0.00 91 1002.1
20260507224224 47 231 2.6 5.2 0.00 0.00 0.00 91 1002.3
20260507224103 47 229 3.5 5.2 0.00 0.00 0.00 91 1002.4
20260507224003 47 229 2.6 5.2 0.00 0.00 0.00 91 1002.1
20260507223903 47 229 2.6 5.2 0.00 0.00 0.00 90 1002.1
20260507223803 47 230 2.6 5.2 0.00 0.00 0.00 91 1002.1
20260507223724 47 231 2.6 5.2 0.00 0.00 0.00 91 1002.1
20260507223603 47 231 2.6 6.1 0.00 0.00 0.00 90 1002.1
20260507223503 47 232 2.6 6.1 0.00 0.00 0.00 90 1002.1
20260507223403 47 233 2.6 6.1 0.00 0.00 0.00 90 1002.3
20260507223324 47 233 2.6 6.1 0.00 0.00 0.00 90 1002.3
20260507223203 48 236 2.6 6.1 0.00 0.00 0.00 90 1002.3
20260507223124 48 237 2.6 6.1 0.00 0.00 0.00 90 1002.3
20260507223003 48 238 2.6 6.1 0.00 0.00 0.00 90 1002.4
20260507222903 48 239 3.5 6.1 0.00 0.00 0.00 90 1002.3
20260507222803 48 238 3.5 6.1 0.00 0.00 0.00 90 1002.3
20260507222704 48 238 3.5 6.1 0.00 0.00 0.00 89 1002.2
20260507222603 48 241 3.5 6.1 0.00 0.00 0.00 89 1002.2
20260507222524 48 242 3.5 6.1 0.00 0.00 0.00 89 1002.3
20260507222403 48 241 3.5 6.1 0.00 0.00 0.00 89 1002.2
20260507222306 48 242 3.5 6.1 0.00 0.00 0.00 89 1002.2
20260507222203 48 243 3.5 6.1 0.00 0.00 0.00 89 1002.2
20260507222103 48 241 3.5 6.1 0.00 0.00 0.00 89 1002.2
20260507222003 48 242 3.5 6.1 0.00 0.00 0.00 89 1002.2
20260507221903 48 243 3.5 6.1 0.00 0.00 0.00 89 1002.0
20260507221824 48 244 3.5 6.1 0.00 0.00 0.00 89 1002.0
20260507221703 48 245 3.5 5.2 0.00 0.00 0.00 89 1002.1
20260507221603 48 246 3.5 5.2 0.00 0.00 0.00 89 1002.1
20260507221503 48 247 3.5 5.2 0.00 0.00 0.00 89 1002.4
20260507221403 48 250 3.5 6.1 0.00 0.00 0.00 88 1002.2
20260507221303 48 249 3.5 7.8 0.00 0.00 0.00 88 1002.1
20260507221203 48 249 3.5 7.8 0.00 0.00 0.00 88 1002.3
20260507221103 48 249 3.5 7.8 0.00 0.00 0.00 88 1002.3
20260507221003 48 249 3.5 7.8 0.00 0.00 0.00 88 1002.3
20260507220903 48 248 3.5 7.8 0.00 0.00 0.00 88 1002.2
20260507220824 48 248 3.5 7.8 0.00 0.00 0.00 88 1002.1
20260507220703 48 247 3.5 7.8 0.00 0.00 0.00 88 1002.3
20260507220603 48 247 3.5 7.8 0.00 0.00 0.00 88 1002.2
20260507220503 48 245 3.5 7.8 0.00 0.00 0.00 88 1002.0
20260507220403 48 243 3.5 7.8 0.00 0.00 0.00 87 1002.3
20260507220303 48 243 3.5 7.8 0.00 0.00 0.00 87 1002.2
20260507220203 48 243 3.5 6.1 0.00 0.00 0.00 87 1002.3
20260507220003 49 239 3.5 6.1 0.00 0.00 0.00 87 1002.3
20260507215924 49 239 3.5 6.1 0.00 0.00 0.00 87 1002.2
20260507215803 49 238 3.5 6.1 0.00 0.00 0.00 87 1002.0
20260507215703 49 239 3.5 6.1 0.00 0.00 0.00 87 1002.2
20260507215603 49 236 3.5 6.1 0.00 0.00 0.00 87 1002.2
20260507215503 49 237 3.5 6.1 0.00 0.00 0.00 87 1002.3
20260507215403 49 238 3.5 6.1 0.00 0.00 0.00 87 1002.3
20260507215306 49 239 3.5 6.1 0.00 0.00 0.00 87 1002.2
20260507215203 49 240 3.5 6.1 0.00 0.00 0.00 86 1002.2
20260507215124 49 242 3.5 6.1 0.00 0.00 0.00 87 1002.2
20260507215003 49 245 3.5 6.1 0.00 0.00 0.00 86 1002.1
20260507214903 49 246 3.5 6.1 0.00 0.00 0.00 86 1002.4
20260507214824 49 247 3.5 6.1 0.00 0.00 0.00 86 1002.4
20260507214703 49 250 3.5 6.1 0.00 0.00 0.00 86 1002.2
20260507214603 49 252 2.6 6.1 0.00 0.00 0.00 86 1002.2
20260507214503 49 252 3.5 6.1 0.00 0.00 0.00 86 1002.3
20260507214424 49 252 2.6 6.1 0.00 0.00 0.00 86 1002.3
20260507214303 49 251 3.5 6.1 0.00 0.00 0.00 85 1002.2
20260507214203 49 250 3.5 6.1 0.00 0.00 0.00 85 1002.2
20260507214124 49 248 3.5 6.1 0.00 0.00 0.00 85 1002.2
20260507214003 49 245 2.6 6.1 0.00 0.00 0.00 85 1002.2
20260507213924 49 245 2.6 6.1 0.00 0.00 0.00 85 1002.2
20260507213824 49 244 2.6 6.1 0.00 0.00 0.00 85 1002.3
20260507213703 49 243 3.5 6.1 0.00 0.00 0.00 85 1002.0
20260507213624 49 242 3.5 6.1 0.00 0.00 0.00 85 1002.1
20260507213525 49 240 2.6 6.1 0.00 0.00 0.00 85 1002.2
20260507213424 49 239 3.5 6.1 0.00 0.00 0.00 85 1002.2
20260507213303 49 237 3.5 6.1 0.00 0.00 0.00 85 1002.1
20260507213203 49 239 2.6 6.1 0.00 0.00 0.00 85 1002.1
20260507213103 49 241 2.6 6.1 0.00 0.00 0.00 84 1002.1
20260507213003 49 238 2.6 6.1 0.00 0.00 0.00 84 1002.1
20260507212905 49 237 3.5 6.1 0.00 0.00 0.00 84 1002.2
20260507212824 49 238 3.5 6.1 0.00 0.00 0.00 84 1002.2
20260507212703 49 237 3.5 6.1 0.00 0.00 0.00 84 1002.0
20260507212603 49 239 3.5 7.0 0.00 0.00 0.00 84 1002.0
20260507212503 49 241 3.5 7.0 0.00 0.00 0.00 84 1002.0
20260507212403 49 241 3.5 7.0 0.00 0.00 0.00 84 1002.0
20260507212306 49 241 3.5 7.0 0.00 0.00 0.00 84 1002.2
20260507212203 49 241 3.5 7.0 0.00 0.00 0.00 84 1002.2
20260507212103 49 243 3.5 7.0 0.00 0.00 0.00 84 1002.1
20260507212003 49 246 2.6 7.0 0.00 0.00 0.00 84 1002.2
20260507211903 49 246 2.6 7.0 0.00 0.00 0.00 84 1002.2
20260507211803 49 246 2.6 7.0 0.00 0.00 0.00 84 1002.1
20260507211704 49 246 2.6 7.0 0.00 0.00 0.00 84 1002.1
20260507211604 49 243 2.6 7.0 0.00 0.00 0.00 84 1002.0
20260507211504 49 242 2.6 7.0 0.00 0.00 0.00 84 1002.1
20260507211405 49 240 2.6 5.2 0.00 0.00 0.00 84 1002.1
20260507211305 49 233 2.6 5.2 0.00 0.00 0.00 84 1002.0
20260507211225 49 230 2.6 5.2 0.00 0.00 0.00 84 1002.0
20260507211104 49 222 2.6 5.2 0.00 0.00 0.00 84 1002.0
20260507211004 49 220 2.6 5.2 0.00 0.00 0.00 84 1002.1
20260507210905 49 219 2.6 5.2 0.00 0.00 0.00 84 1001.9
20260507210804 49 219 2.6 5.2 0.00 0.00 0.00 84 1002.1
20260507210704 49 220 2.6 6.1 0.00 0.00 0.00 83 1002.0
20260507210625 49 218 2.6 6.1 0.00 0.00 0.00 83 1002.1
20260507210526 49 219 2.6 6.1 0.00 0.00 0.00 83 1002.0
20260507210404 50 222 2.6 6.1 0.00 0.00 0.00 83 1002.0
20260507210304 50 226 2.6 6.1 0.00 0.00 0.00 83 1002.1
20260507210205 50 228 2.6 6.1 0.00 0.00 0.00 83 1002.2
20260507210104 50 232 2.6 6.1 0.00 0.00 0.00 83 1002.0
20260507210005 50 232 2.6 6.1 0.00 0.00 0.00 83 1002.2
20260507205904 50 234 2.6 6.1 0.00 0.00 0.00 83 1002.1
20260507205805 50 234 2.6 6.1 0.00 0.00 0.00 83 1002.2
20260507205725 50 235 2.6 6.1 0.00 0.00 0.00 82 1002.2
20260507205604 50 237 2.6 6.1 0.00 0.00 0.00 82 1002.1
20260507205525 50 235 2.6 6.1 0.00 0.00 0.00 82 1002.1
20260507205425 50 235 2.6 6.1 0.00 0.00 0.00 82 1001.9
20260507205325 50 236 2.6 5.2 0.00 0.00 0.00 82 1002.0
20260507205205 50 235 2.6 5.2 0.00 0.00 0.00 82 1002.1
20260507205125 50 233 2.6 5.2 0.00 0.00 0.00 82 1002.2
20260507205004 50 234 2.6 5.2 0.00 0.00 0.00 82 1001.9
20260507204904 50 237 2.6 5.2 0.00 0.00 0.00 82 1002.1
20260507204825 50 238 2.6 5.2 0.00 0.00 0.00 82 1002.1
20260507204705 50 236 2.6 5.2 0.00 0.00 0.00 82 1002.2
20260507204604 50 235 2.6 5.2 0.00 0.00 0.00 81 1002.1
20260507204505 50 235 3.5 5.2 0.00 0.00 0.00 82 1002.1
20260507204404 50 237 3.5 5.2 0.00 0.00 0.00 81 1002.3
20260507204304 50 239 3.5 5.2 0.00 0.00 0.00 81 1002.0
20260507204205 50 242 2.6 5.2 0.00 0.00 0.00 81 1001.9
20260507204104 50 244 2.6 6.1 0.00 0.00 0.00 81 1001.9
20260507204005 50 244 3.5 6.1 0.00 0.00 0.00 81 1002.1
20260507203904 50 242 3.5 6.1 0.00 0.00 0.00 81 1002.0
20260507203804 50 242 3.5 6.1 0.00 0.00 0.00 81 1001.9
20260507203704 50 245 3.5 6.1 0.00 0.00 0.00 81 1002.0
20260507203605 50 244 3.5 6.1 0.00 0.00 0.00 81 1001.8
20260507203504 50 244 3.5 7.0 0.00 0.00 0.00 81 1002.0
20260507203405 51 245 3.5 7.0 0.00 0.00 0.00 81 1002.2
20260507203304 51 244 3.5 7.0 0.00 0.00 0.00 81 1002.1
20260507203205 51 243 3.5 7.0 0.00 0.00 0.00 80 1002.0
20260507203104 51 246 3.5 7.0 0.00 0.00 0.00 80 1002.0
20260507203004 51 244 4.3 7.0 0.00 0.00 0.00 80 1002.2
20260507202904 51 244 4.3 7.0 0.00 0.00 0.00 80 1002.1
20260507202825 51 242 4.3 7.0 0.00 0.00 0.00 80 1002.0
20260507202704 51 242 3.5 7.0 0.00 0.00 0.00 80 1002.1
20260507202604 51 244 3.5 7.0 0.00 0.00 0.00 80 1002.1
20260507202504 51 243 4.3 7.0 0.00 0.00 0.00 80 1002.1
20260507202425 51 243 3.5 7.0 0.00 0.00 0.00 80 1002.0
20260507202307 51 244 4.3 7.0 0.00 0.00 0.00 80 1001.8
20260507202204 51 242 4.3 7.0 0.00 0.00 0.00 80 1002.2
20260507202104 51 239 3.5 7.0 0.00 0.00 0.00 80 1001.8
20260507202005 51 238 3.5 7.0 0.00 0.00 0.00 80 1001.9
20260507201904 51 239 3.5 6.1 0.00 0.00 0.00 80 1001.8
20260507201805 51 239 3.5 6.1 0.00 0.00 0.00 80 1001.6
20260507201704 51 238 3.5 6.1 0.00 0.00 0.00 80 1002.0
20260507201604 51 239 3.5 6.1 0.00 0.00 0.00 79 1001.8
20260507201504 51 240 3.5 6.1 0.00 0.00 0.00 80 1001.9
20260507201404 51 240 3.5 6.1 0.00 0.00 0.00 80 1001.8
20260507201326 51 238 3.5 6.1 0.00 0.00 0.00 80 1001.8
20260507201225 51 239 3.5 6.1 0.00 0.00 0.00 80 1001.9
20260507201126 51 241 3.5 6.1 0.00 0.00 0.00 80 1001.9
20260507201004 51 244 3.5 6.1 0.00 0.00 0.00 80 1001.8
20260507200904 51 247 3.5 6.1 0.00 0.00 0.00 80 1001.7
20260507200805 51 247 3.5 6.1 0.00 0.00 0.00 80 1001.9
20260507200704 51 247 3.5 6.1 0.00 0.00 0.00 80 1001.8
20260507200604 51 245 3.5 6.1 0.00 0.00 0.00 80 1001.5
20260507200504 51 244 3.5 6.1 0.00 0.00 0.00 80 1001.8
20260507200405 51 245 3.5 6.1 0.00 0.00 0.00 80 1001.7
20260507200304 51 246 3.5 6.1 0.00 0.00 0.00 80 1001.8
20260507200226 51 246 3.5 6.1 0.00 0.00 0.00 80 1001.8
20260507200125 51 246 3.5 6.1 0.00 0.00 0.00 80 1001.7
20260507200004 51 245 3.5 6.1 0.00 0.00 0.00 79 1001.6
20260507195904 51 242 3.5 6.1 0.00 0.00 0.00 79 1001.7
20260507195804 51 241 3.5 6.1 0.00 0.00 0.00 79 1001.7
20260507195704 51 241 3.5 6.1 0.00 0.00 0.00 79 1001.8
20260507195604 51 241 3.5 6.1 0.00 0.00 0.00 79 1001.7
20260507195526 51 240 3.5 6.1 0.00 0.00 0.00 79 1001.7
20260507195404 51 242 3.5 6.1 0.00 0.00 0.00 79 1001.8
20260507195305 51 242 3.5 6.1 0.00 0.00 0.00 78 1001.7
20260507195205 51 240 3.5 6.1 0.00 0.00 0.00 79 1001.6
20260507195104 51 240 3.5 7.8 0.00 0.00 0.00 79 1001.6
20260507195025 51 238 3.5 7.8 0.00 0.00 0.00 78 1001.8
20260507194904 51 238 4.3 7.8 0.00 0.00 0.00 78 1001.6
20260507194825 51 237 3.5 7.8 0.00 0.00 0.00 78 1001.7
20260507194704 51 237 3.5 7.8 0.00 0.00 0.00 78 1001.8
20260507194604 51 238 3.5 7.8 0.00 0.00 0.00 78 1001.4
20260507194504 51 237 3.5 7.8 0.00 0.00 0.00 78 1001.5
20260507194405 51 234 3.5 7.8 0.00 0.00 0.00 78 1001.6
20260507194304 51 233 3.5 7.8 0.00 0.00 0.00 78 1001.5
20260507194204 51 234 3.5 7.8 0.00 0.00 0.00 78 1001.6
20260507194104 51 234 3.5 7.8 0.00 0.00 0.00 78 1001.5
20260507194004 51 235 3.5 7.8 0.00 0.00 0.00 78 1001.7
20260507193904 51 237 3.5 7.8 0.00 0.00 0.00 78 1001.6
20260507193804 51 240 3.5 7.0 0.00 0.00 0.00 78 1001.7
20260507193704 51 240 3.5 7.8 0.00 0.00 0.00 78 1001.6
20260507193604 51 241 3.5 7.8 0.00 0.00 0.00 78 1001.4
20260507193504 51 243 3.5 7.8 0.00 0.00 0.00 78 1001.4
20260507193404 51 244 4.3 7.8 0.00 0.00 0.00 78 1001.4
20260507193325 51 243 4.3 7.8 0.00 0.00 0.00 77 1001.5
20260507193204 51 243 4.3 7.8 0.00 0.00 0.00 78 1001.4
20260507193104 51 243 3.5 7.8 0.00 0.00 0.00 78 1001.6
20260507193004 51 243 3.5 7.8 0.00 0.00 0.00 77 1001.3
20260507192904 51 243 3.5 7.8 0.00 0.00 0.00 78 1001.6
20260507192804 51 243 3.5 7.8 0.00 0.00 0.00 78 1001.5
20260507192704 51 240 3.5 7.8 0.00 0.00 0.00 77 1001.5
20260507192604 51 240 3.5 7.8 0.00 0.00 0.00 77 1001.4
20260507192504 51 236 3.5 6.1 0.00 0.00 0.00 77 1001.5
20260507192404 51 237 3.5 6.1 0.00 0.00 0.00 77 1001.5
20260507192306 51 236 3.5 6.1 0.00 0.00 0.00 77 1001.6
20260507192205 51 237 3.5 6.1 0.00 0.00 0.00 77 1001.6
20260507192104 51 235 3.5 6.1 0.00 0.00 0.00 77 1001.4
20260507192004 51 231 2.6 6.1 0.00 0.00 0.00 77 1001.6
20260507191905 51 227 2.6 6.1 0.00 0.00 0.00 77 1001.5
20260507191804 51 224 2.6 6.1 0.00 0.00 0.00 77 1001.3
20260507191704 51 226 3.5 6.1 0.00 0.00 0.00 77 1001.4
20260507191604 51 226 2.6 6.1 0.00 0.00 0.00 76 1001.5
20260507191504 51 229 2.6 6.1 0.00 0.00 0.00 76 1001.6
20260507191404 51 229 2.6 6.1 0.00 0.00 0.00 76 1001.5
20260507191325 51 230 3.5 6.1 0.00 0.00 0.00 76 1001.4
20260507191204 51 230 3.5 6.1 0.00 0.00 0.00 76 1001.5
20260507191104 51 228 3.5 6.1 0.00 0.00 0.00 76 1001.5
20260507191004 51 230 3.5 6.1 0.00 0.00 0.00 76 1001.4
20260507190904 51 232 3.5 6.1 0.00 0.00 0.00 76 1001.5
20260507190825 51 233 3.5 6.1 0.00 0.00 0.00 76 1001.4
20260507190705 51 229 3.5 6.1 0.00 0.00 0.00 76 1001.2
20260507190604 52 228 3.5 6.1 0.00 0.00 0.00 76 1001.5
20260507190505 52 224 3.5 6.1 0.00 0.00 0.00 76 1001.4
20260507190404 52 221 3.5 6.1 0.00 0.00 0.00 76 1001.5
20260507190305 52 219 3.5 6.1 0.00 0.00 0.00 75 1001.2
20260507190204 52 219 3.5 7.0 0.00 0.00 0.00 75 1001.4
20260507190126 52 220 3.5 7.0 0.00 0.00 0.00 75 1001.6
20260507190005 52 220 3.5 7.0 0.00 0.00 0.00 75 1001.6
20260507185925 52 221 3.5 7.0 0.00 0.00 0.00 75 1001.6
20260507185804 52 223 3.5 7.0 0.00 0.00 0.00 75 1001.5
20260507185704 52 226 3.5 7.0 0.00 0.00 0.00 75 1001.5
20260507185625 52 227 3.5 7.0 0.00 0.00 0.00 75 1001.5
20260507185504 52 228 3.5 7.8 0.00 0.00 0.00 75 1001.3
20260507185404 52 227 4.3 7.8 0.00 0.00 0.00 74 1001.4
20260507185306 52 228 3.5 7.8 0.00 0.00 0.00 75 1001.4
20260507185205 52 230 3.5 8.7 0.00 0.00 0.00 75 1001.3
20260507185104 52 230 4.3 8.7 0.00 0.00 0.00 74 1001.3
20260507185004 52 229 4.3 8.7 0.00 0.00 0.00 75 1001.4
20260507184904 52 227 4.3 8.7 0.00 0.00 0.00 74 1001.2
20260507184804 52 227 4.3 8.7 0.00 0.00 0.00 75 1001.4
20260507184725 52 229 4.3 8.7 0.00 0.00 0.00 74 1001.3
20260507184604 52 226 5.2 8.7 0.00 0.00 0.00 74 1001.4
20260507184505 52 226 5.2 8.7 0.00 0.00 0.00 74 1001.5
20260507184404 53 227 5.2 8.7 0.00 0.00 0.00 74 1001.5
20260507184304 53 228 5.2 8.7 0.00 0.00 0.00 74 1001.6
20260507184204 53 227 5.2 8.7 0.00 0.00 0.00 73 1001.3
20260507184104 53 226 5.2 8.7 0.00 0.00 0.00 73 1001.3
20260507184025 53 228 5.2 8.7 0.00 0.00 0.00 73 1001.3
20260507183904 53 224 5.2 8.7 0.00 0.00 0.00 72 1001.4
20260507183825 53 223 5.2 8.7 0.00 0.00 0.00 73 1001.4
20260507183704 53 220 5.2 8.7 0.00 0.00 0.00 73 1001.4
20260507183604 53 220 5.2 8.7 0.00 0.00 0.00 73 1001.5
20260507183504 53 220 5.2 8.7 0.00 0.00 0.00 73 1001.4
20260507183404 53 223 5.2 9.6 0.00 0.00 0.00 73 1001.3
20260507183304 53 226 5.2 9.6 0.00 0.00 0.00 73 1001.4
20260507183204 53 224 5.2 9.6 0.00 0.00 0.00 73 1001.3
20260507183104 53 224 5.2 9.6 0.00 0.00 0.00 73 1001.4
20260507183005 53 222 5.2 9.6 0.00 0.00 0.00 73 1001.4
20260507182904 53 224 5.2 9.6 0.00 0.00 0.00 73 1001.4
20260507182804 53 227 5.2 9.6 0.00 0.00 0.00 73 1001.4
20260507182704 53 227 6.1 9.6 0.00 0.00 0.00 74 1001.2
20260507182604 53 227 6.1 9.6 0.00 0.00 0.00 73 1001.4
20260507182504 53 226 6.1 9.6 0.00 0.00 0.00 73 1001.4
20260507182404 53 223 6.1 9.6 0.00 0.00 0.00 73 1001.5
20260507182306 53 220 6.1 9.6 0.00 0.00 0.00 73 1001.3
20260507182204 53 218 6.1 11.3 0.00 0.00 0.00 72 1001.4
20260507182104 53 219 6.1 11.3 0.00 0.00 0.00 72 1001.4
20260507182004 53 218 6.1 12.2 0.00 0.00 0.00 72 1001.2
20260507181904 53 220 6.1 12.2 0.00 0.00 0.00 73 1001.2
20260507181825 54 219 6.1 12.2 0.00 0.00 0.00 72 1001.4
20260507181704 54 213 6.1 12.2 0.00 0.00 0.00 72 1001.2
20260507181604 54 218 6.1 12.2 0.00 0.00 0.00 73 1001.2
20260507181504 54 220 6.1 12.2 0.00 0.00 0.00 73 1001.2
20260507181404 54 223 6.1 12.2 0.00 0.00 0.00 72 1001.3
20260507181305 54 224 6.1 12.2 0.00 0.00 0.00 72 1001.3
20260507181204 54 226 6.1 12.2 0.00 0.00 0.00 71 1001.4
20260507181125 54 225 6.1 12.2 0.00 0.00 0.00 71 1001.3
20260507181004 54 226 6.1 12.2 0.00 0.00 0.00 71 1001.4
20260507180904 54 224 6.1 12.2 0.00 0.00 0.00 71 1001.3
20260507180804 54 226 6.1 12.2 0.00 0.00 0.00 72 1001.3
20260507180704 54 226 6.1 12.2 0.00 0.00 0.00 71 1001.1
20260507180604 54 225 6.1 12.2 0.00 0.00 0.00 72 1001.1
20260507180504 54 222 6.1 12.2 0.00 0.00 0.00 73 1001.3
20260507180425 54 221 6.1 12.2 0.00 0.00 0.00 71 1001.3
20260507180304 54 219 6.1 12.2 0.00 0.00 0.00 71 1001.3
20260507180204 54 217 6.1 12.2 0.00 0.00 0.00 71 1001.2
20260507180104 54 219 6.1 12.2 0.00 0.00 0.00 72 1001.4
20260507180004 54 220 6.1 12.2 0.00 0.00 0.00 72 1001.2
20260507175904 54 221 6.1 12.2 0.00 0.00 0.00 72 1001.2
20260507175825 54 224 6.1 12.2 0.00 0.00 0.00 73 1001.2
20260507175704 54 227 6.1 12.2 0.00 0.00 0.00 73 1001.2
20260507175604 54 226 7.0 12.2 0.00 0.00 0.00 73 1001.3
20260507175504 54 227 7.0 12.2 0.00 0.00 0.00 72 1001.4
20260507175404 54 225 7.0 12.2 0.00 0.00 0.00 72 1001.3
20260507175307 54 224 7.0 12.2 0.00 0.00 0.00 72 1001.1
20260507175204 54 225 7.0 12.2 0.00 0.00 0.00 73 1001.4
20260507175125 54 223 7.0 12.2 0.00 0.00 0.00 72 1001.4
20260507175004 54 221 7.0 13.0 0.00 0.00 0.00 73 1001.3
20260507174904 54 219 7.0 13.0 0.00 0.00 0.00 73 1001.2
20260507174804 54 217 7.0 13.0 0.00 0.00 0.00 73 1001.1
20260507174704 54 218 7.0 13.0 0.00 0.00 0.00 73 1001.2
20260507174625 54 221 7.0 13.0 0.00 0.00 0.00 74 1001.2
20260507174504 54 221 7.0 13.0 0.00 0.00 0.00 73 1001.2
20260507174404 54 224 7.0 13.0 0.00 0.00 0.00 73 1001.3
20260507174304 54 227 7.0 13.0 0.00 0.00 0.00 73 1001.3
20260507174204 54 230 7.0 13.0 0.00 0.00 0.00 74 1001.3
20260507174125 54 232 7.0 13.0 0.00 0.00 0.00 74 1001.3
20260507174004 54 231 7.0 13.0 0.00 0.00 0.00 75 1001.5
20260507173904 54 234 6.1 13.0 0.00 0.00 0.00 76 1001.1
20260507173804 54 236 6.1 13.0 0.00 0.00 0.00 74 1001.2
20260507173704 54 233 6.1 13.0 0.00 0.00 0.00 74 1001.4
20260507173604 54 227 6.1 13.0 0.00 0.00 0.00 75 1001.3
20260507173504 54 228 5.2 13.0 0.00 0.00 0.00 75 1001.2
20260507173404 54 226 5.2 13.0 0.00 0.00 0.00 75 1001.4
20260507173325 54 224 5.2 13.0 0.00 0.00 0.00 76 1001.4
20260507173204 54 221 6.1 13.0 0.00 0.00 0.00 76 1001.2
20260507173104 54 218 6.1 13.0 0.00 0.00 0.00 75 1001.4
20260507173005 54 220 6.1 12.2 0.00 0.00 0.00 75 1001.4
20260507172904 54 223 6.1 12.2 0.00 0.00 0.00 76 1001.3
20260507172804 54 220 6.1 12.2 0.00 0.00 0.00 76 1001.6
20260507172704 54 219 6.1 12.2 0.00 0.00 0.00 76 1001.5
20260507172604 54 220 6.1 12.2 0.00 0.00 0.00 76 1001.2
20260507172504 54 219 6.1 12.2 0.00 0.00 0.00 75 1001.4
20260507172404 54 219 6.1 12.2 0.00 0.00 0.00 75 1001.4
20260507172307 54 222 6.1 12.2 0.00 0.00 0.00 76 1001.4
20260507172225 54 224 6.1 12.2 0.00 0.00 0.00 75 1001.4
20260507172104 55 225 6.1 13.0 0.00 0.00 0.00 75 1001.5
20260507172004 55 226 6.1 13.0 0.00 0.00 0.00 74 1001.5
20260507171905 55 225 6.1 13.0 0.00 0.00 0.00 75 1001.3
20260507171804 55 226 6.1 13.0 0.00 0.00 0.00 75 1001.2
20260507171704 54 232 7.0 13.0 0.00 0.00 0.00 76 1001.3
20260507171604 54 235 7.0 13.0 0.00 0.00 0.00 75 1001.6
20260507171504 54 238 7.0 13.0 0.00 0.00 0.00 74 1001.3
20260507171404 54 238 7.0 13.0 0.00 0.00 0.00 75 1001.6
20260507171304 54 238 7.0 13.0 0.00 0.00 0.00 75 1001.4
20260507171225 54 235 7.0 13.0 0.00 0.00 0.00 75 1001.4
20260507171104 54 238 7.0 13.0 0.00 0.00 0.00 74 1001.5
20260507171004 54 237 7.0 11.3 0.00 0.00 0.00 76 1001.3
20260507170904 54 237 7.0 13.9 0.00 0.00 0.00 74 1001.5
20260507170804 54 239 7.0 13.9 0.00 0.00 0.00 75 1001.6
20260507170704 54 236 7.0 13.9 0.00 0.00 0.00 76 1001.5
20260507170604 54 235 7.0 13.9 0.00 0.00 0.00 76 1001.5
20260507170504 54 234 7.0 13.9 0.00 0.00 0.00 76 1001.5
20260507170425 55 234 7.0 13.9 0.00 0.00 0.00 75 1001.5
20260507170304 55 233 7.0 13.9 0.00 0.00 0.00 77 1001.5
20260507170225 55 235 7.8 13.9 0.00 0.00 0.00 76 1001.5
20260507170104 54 236 7.8 13.9 0.00 0.00 0.00 76 1001.5
20260507170005 54 237 7.8 13.9 0.00 0.00 0.00 76 1001.6
20260507165904 55 239 7.8 13.9 0.00 0.00 0.00 76 1001.6
20260507165804 55 241 7.8 13.0 0.00 0.00 0.00 75 1001.4
20260507165704 55 242 7.0 13.0 0.00 0.00 0.00 75 1001.5
20260507165604 55 243 7.0 13.0 0.00 0.00 0.00 76 1001.8
20260507165504 55 244 7.0 13.0 0.00 0.00 0.00 75 1001.6
20260507165404 55 242 7.0 13.0 0.00 0.00 0.00 75 1001.7
20260507165306 55 242 7.0 13.0 0.00 0.00 0.00 76 1001.4
20260507165225 55 242 7.0 13.0 0.00 0.00 0.00 76 1001.4
20260507165104 55 238 7.0 15.6 0.00 0.00 0.00 76 1001.6
20260507165004 55 240 7.0 15.6 0.00 0.00 0.00 76 1001.6
20260507164904 55 240 7.0 15.6 0.00 0.00 0.00 76 1001.5
20260507164825 54 240 7.0 15.6 0.00 0.00 0.00 78 1001.5
20260507164704 54 243 7.0 15.6 0.00 0.00 0.00 77 1001.6
20260507164604 55 243 7.0 15.6 0.00 0.00 0.00 76 1001.6
20260507164504 55 246 7.0 15.6 0.00 0.00 0.00 75 1001.6
20260507164404 54 247 7.0 15.6 0.00 0.00 0.00 76 1001.6
20260507164325 54 250 7.0 15.6 0.00 0.00 0.00 76 1001.6
20260507164204 54 251 7.0 15.6 0.00 0.00 0.00 76 1001.8
20260507164104 54 255 7.8 15.6 0.00 0.00 0.00 75 1001.5
20260507164025 54 257 7.0 13.0 0.00 0.00 0.00 76 1001.5
20260507163904 54 254 7.0 13.0 0.00 0.00 0.00 78 1001.5
20260507163804 54 251 7.8 13.0 0.00 0.00 0.00 76 1001.6
20260507163704 54 252 7.8 13.0 0.00 0.00 0.00 77 1001.7
20260507163604 54 250 7.8 13.0 0.00 0.00 0.00 77 1001.6
20260507163504 54 248 7.8 13.0 0.00 0.00 0.00 76 1001.6
20260507163404 54 247 7.8 13.0 0.00 0.00 0.00 77 1001.6
20260507163325 54 246 7.0 13.0 0.00 0.00 0.00 77 1001.6
20260507163204 54 244 7.0 13.9 0.00 0.00 0.00 75 1001.5
20260507163104 54 242 7.0 13.9 0.00 0.00 0.00 76 1001.5
20260507163004 54 242 7.0 13.9 0.00 0.00 0.00 75 1001.6
20260507162925 54 242 7.0 13.9 0.00 0.00 0.00 76 1001.6
20260507162804 54 243 7.0 13.9 0.00 0.00 0.00 77 1001.7
20260507162704 54 240 7.0 13.9 0.00 0.00 0.00 76 1001.5
20260507162604 54 241 7.0 13.9 0.00 0.00 0.00 75 1001.7
20260507162504 54 242 7.0 13.9 0.00 0.00 0.00 76 1001.6
20260507162404 54 244 7.0 13.9 0.00 0.00 0.00 77 1001.4
20260507162307 54 243 7.0 13.9 0.00 0.00 0.00 76 1001.7
20260507162204 54 244 7.0 13.9 0.00 0.00 0.00 76 1001.7
20260507162125 54 244 7.0 13.9 0.00 0.00 0.00 76 1001.7
20260507162025 54 245 7.0 12.2 0.00 0.00 0.00 77 1001.6
20260507161904 54 247 7.0 12.2 0.00 0.00 0.00 76 1001.7
20260507161804 54 249 7.0 12.2 0.00 0.00 0.00 78 1001.6
20260507161704 54 250 7.0 12.2 0.00 0.00 0.00 77 1001.5
20260507161625 54 250 7.0 12.2 0.00 0.00 0.00 77 1001.5
20260507161504 54 251 7.0 12.2 0.00 0.00 0.00 77 1001.6
20260507161425 54 250 7.0 12.2 0.00 0.00 0.00 77 1001.6
20260507161304 54 252 6.1 12.2 0.00 0.00 0.00 77 1001.5
20260507161225 54 253 6.1 12.2 0.00 0.00 0.00 77 1001.5
20260507161104 54 253 6.1 12.2 0.00 0.00 0.00 77 1001.7
20260507161004 54 252 6.1 12.2 0.00 0.00 0.00 77 1001.7
20260507160925 54 251 6.1 12.2 0.00 0.00 0.00 78 1001.7
20260507160804 54 250 6.1 12.2 0.00 0.00 0.00 76 1001.6
20260507160704 54 249 6.1 12.2 0.00 0.00 0.00 77 1001.7
20260507160604 54 247 6.1 12.2 0.00 0.00 0.00 77 1001.7
20260507160504 54 245 6.1 12.2 0.00 0.00 0.00 77 1001.7
20260507160404 54 244 6.1 12.2 0.00 0.00 0.00 77 1001.7
20260507160304 54 244 6.1 12.2 0.00 0.00 0.00 77 1001.6
20260507160204 54 244 6.1 12.2 0.00 0.00 0.00 77 1001.8
20260507160104 54 244 7.0 12.2 0.00 0.00 0.00 76 1001.7
20260507160004 54 247 7.0 11.3 0.00 0.00 0.00 77 1002.0
20260507155925 54 247 7.0 11.3 0.00 0.00 0.00 77 1002.0
20260507155804 54 246 7.0 13.0 0.00 0.00 0.00 76 1001.6
20260507155725 54 247 7.0 13.0 0.00 0.00 0.00 76 1001.6
20260507155604 54 246 7.0 13.0 0.00 0.00 0.00 76 1001.6
20260507155525 54 250 7.0 13.0 0.00 0.00 0.00 77 1001.6
20260507155425 54 250 7.0 13.0 0.00 0.00 0.00 76 1001.8
20260507155325 54 249 7.0 13.0 0.00 0.00 0.00 77 1001.7
20260507155204 54 246 7.0 13.0 0.00 0.00 0.00 76 1001.7
20260507155104 54 245 7.0 13.0 0.00 0.00 0.00 77 1001.6
20260507155004 54 243 7.0 13.0 0.00 0.00 0.00 77 1001.7
20260507154904 54 242 7.0 13.0 0.00 0.00 0.00 76 1001.6
20260507154804 54 241 7.0 13.0 0.00 0.00 0.00 76 1001.6
20260507154704 54 240 6.1 12.2 0.00 0.00 0.00 77 1001.6
20260507154604 54 242 6.1 12.2 0.00 0.00 0.00 77 1001.5
20260507154504 54 241 6.1 12.2 0.00 0.00 0.00 77 1001.6
20260507154404 54 242 6.1 12.2 0.00 0.00 0.00 76 1001.9
20260507154304 54 244 6.1 12.2 0.00 0.00 0.00 77 1001.6
20260507154204 54 243 7.0 12.2 0.00 0.00 0.00 76 1001.9
20260507154104 54 241 7.0 12.2 0.00 0.00 0.00 76 1001.6
20260507154005 54 237 7.0 12.2 0.00 0.00 0.00 76 1001.7
20260507153904 54 233 7.0 12.2 0.00 0.00 0.00 76 1001.8
20260507153804 54 233 7.0 12.2 0.00 0.00 0.00 76 1001.6
20260507153705 54 231 7.0 13.0 0.00 0.00 0.00 76 1001.7
20260507153625 54 230 7.0 13.0 0.00 0.00 0.00 76 1001.7
20260507153504 54 232 7.0 13.0 0.00 0.00 0.00 76 1001.8
20260507153404 54 230 7.0 13.0 0.00 0.00 0.00 76 1001.8
20260507153304 54 229 7.0 13.0 0.00 0.00 0.00 76 1001.7
20260507153204 54 224 7.0 13.0 0.00 0.00 0.00 76 1001.7
20260507153104 54 226 7.0 13.0 0.00 0.00 0.00 77 1001.9
20260507153004 54 228 7.0 13.0 0.00 0.00 0.00 77 1001.8
20260507152904 54 235 6.1 13.0 0.00 0.00 0.00 77 1001.7
20260507152804 54 231 6.1 13.0 0.00 0.00 0.00 77 1002.0
20260507152725 54 231 6.1 13.0 0.00 0.00 0.00 76 1002.0
20260507152604 54 236 6.1 13.0 0.00 0.00 0.00 76 1001.8
20260507152504 54 238 7.0 13.9 0.00 0.00 0.00 76 1001.9
20260507152404 54 236 7.0 13.9 0.00 0.00 0.00 77 1001.8
20260507152306 54 238 7.0 13.9 0.00 0.00 0.00 76 1001.9
20260507152204 54 244 7.0 13.9 0.00 0.00 0.00 77 1001.8
20260507152106 54 243 7.8 13.9 0.00 0.00 0.00 77 1001.7
20260507152004 54 244 7.8 14.8 0.00 0.00 0.00 76 1002.0
20260507151904 54 241 7.8 14.8 0.00 0.00 0.00 75 1001.9
20260507151804 54 243 8.7 14.8 0.00 0.00 0.00 78 1001.6
20260507151704 54 244 7.8 14.8 0.00 0.00 0.00 76 1001.7
20260507151604 54 241 7.8 14.8 0.00 0.00 0.00 76 1001.7
20260507151504 54 236 7.8 14.8 0.00 0.00 0.00 75 1001.7
20260507151404 54 234 7.8 14.8 0.00 0.00 0.00 75 1001.7
20260507151304 54 232 7.8 14.8 0.00 0.00 0.00 77 1001.9
20260507151204 54 229 7.0 14.8 0.00 0.00 0.00 76 1001.7
20260507151104 54 227 7.0 14.8 0.00 0.00 0.00 76 1001.9
20260507151004 54 226 7.0 14.8 0.00 0.00 0.00 75 1001.9
20260507150904 54 227 7.0 13.9 0.00 0.00 0.00 76 1001.9
20260507150804 54 227 7.0 13.9 0.00 0.00 0.00 78 1001.6
20260507150704 54 227 7.0 13.9 0.00 0.00 0.00 77 1001.8
20260507150604 54 225 7.0 13.9 0.00 0.00 0.00 76 1001.6
20260507150504 54 223 7.0 13.9 0.00 0.00 0.00 76 1001.9
20260507150404 54 225 6.1 12.2 0.00 0.00 0.00 76 1002.0
20260507150325 54 226 6.1 12.2 0.00 0.00 0.00 78 1002.0
20260507150204 54 226 6.1 13.9 0.00 0.00 0.00 79 1001.9
20260507150104 54 223 6.1 13.9 0.00 0.00 0.00 78 1002.1
20260507150005 54 226 7.0 13.9 0.00 0.00 0.00 77 1001.8
20260507145904 54 226 6.1 13.9 0.00 0.00 0.00 78 1001.6
20260507145804 54 226 6.1 13.9 0.00 0.00 0.00 78 1001.8
20260507145725 54 225 6.1 13.9 0.00 0.00 0.00 77 1001.8
20260507145604 54 228 6.1 13.9 0.00 0.00 0.00 77 1001.9
20260507145504 54 232 6.1 13.9 0.00 0.00 0.00 78 1001.8
20260507145404 53 232 6.1 13.9 0.00 0.00 0.00 79 1001.9
20260507145306 53 233 6.1 13.9 0.00 0.00 0.00 79 1001.9
20260507145204 53 232 7.0 13.9 0.00 0.00 0.00 77 1001.8
20260507145125 53 234 6.1 13.9 0.00 0.00 0.00 77 1001.8
20260507145004 53 235 6.1 12.2 0.00 0.00 0.00 77 1002.0
20260507144904 53 234 6.1 12.2 0.00 0.00 0.00 79 1001.9
20260507144825 53 233 6.1 12.2 0.00 0.00 0.00 80 1001.9
20260507144704 53 234 6.1 12.2 0.00 0.00 0.00 79 1001.9
20260507144604 53 233 6.1 12.2 0.00 0.00 0.00 79 1001.9
20260507144504 53 235 6.1 12.2 0.00 0.00 0.00 78 1001.9
20260507144404 53 233 6.1 11.3 0.00 0.00 0.00 80 1002.0
20260507144304 53 230 6.1 9.6 0.00 0.00 0.00 79 1002.0
20260507144225 53 230 5.2 9.6 0.00 0.00 0.00 81 1002.0
20260507144104 52 232 5.2 9.6 0.00 0.00 0.00 80 1001.8
20260507144004 52 231 5.2 9.6 0.00 0.00 0.00 81 1002.2
20260507143904 52 233 5.2 9.6 0.00 0.00 0.00 81 1001.8
20260507143804 52 235 5.2 9.6 0.00 0.00 0.00 81 1001.9
20260507143725 52 234 5.2 9.6 0.00 0.00 0.00 82 1001.9
20260507143604 52 233 5.2 9.6 0.00 0.00 0.00 82 1001.9
20260507143525 52 230 5.2 9.6 0.00 0.00 0.00 82 1001.9
20260507143404 52 233 5.2 9.6 0.00 0.00 0.00 82 1002.0
20260507143304 52 236 5.2 9.6 0.00 0.00 0.00 82 1002.1
20260507143204 52 236 5.2 9.6 0.00 0.00 0.00 82 1002.1
20260507143104 51 238 5.2 9.6 0.00 0.00 0.00 82 1002.1
20260507143004 51 236 5.2 9.6 0.00 0.00 0.00 82 1001.9
20260507142904 51 235 5.2 9.6 0.00 0.00 0.00 82 1001.9
20260507142804 51 236 5.2 11.3 0.00 0.00 0.00 82 1002.0
20260507142704 51 238 5.2 11.3 0.00 0.00 0.00 83 1001.9
20260507142604 51 241 5.2 11.3 0.00 0.00 0.00 83 1002.1
20260507142504 51 241 5.2 11.3 0.00 0.00 0.00 83 1002.1
20260507142404 51 241 5.2 11.3 0.00 0.00 0.00 83 1002.1
20260507142325 51 240 5.2 11.3 0.00 0.00 0.00 83 1002.1
20260507142204 51 242 5.2 11.3 0.00 0.00 0.00 83 1001.9
20260507142125 51 239 5.2 11.3 0.00 0.00 0.00 82 1001.9
20260507142004 51 233 5.2 12.2 0.00 0.00 0.00 82 1002.1
20260507141925 51 234 5.2 12.2 0.00 0.00 0.00 82 1002.1
20260507141804 51 229 5.2 12.2 0.00 0.00 0.00 81 1002.2
20260507141725 52 229 5.2 12.2 0.00 0.00 0.00 79 1002.2
20260507141625 52 230 5.2 12.2 0.00 0.00 0.00 79 1002.3
20260507141504 52 229 5.2 12.2 0.00 0.00 0.00 80 1002.4
20260507141425 52 229 6.1 12.2 0.00 0.00 0.00 79 1002.4
20260507141325 51 231 6.1 12.2 0.00 0.00 0.00 78 1002.2
20260507141204 51 231 6.1 12.2 0.00 0.00 0.00 77 1002.4
20260507141104 51 232 6.1 12.2 0.00 0.00 0.00 77 1002.4
20260507141004 51 236 6.1 12.2 0.00 0.00 0.00 78 1002.2
20260507140904 51 236 6.1 11.3 0.00 0.00 0.00 79 1002.2
20260507140804 51 238 6.1 11.3 0.00 0.00 0.00 78 1002.3
20260507140725 51 238 6.1 11.3 0.00 0.00 0.00 78 1002.3
20260507140604 52 235 6.1 11.3 0.00 0.00 0.00 79 1002.4
20260507140504 52 233 6.1 11.3 0.00 0.00 0.00 78 1002.5
20260507140404 52 234 6.1 11.3 0.00 0.00 0.00 79 1002.4
20260507140304 52 231 6.1 11.3 0.00 0.00 0.00 79 1002.4
20260507140204 52 229 6.1 11.3 0.00 0.00 0.00 79 1002.3
20260507140125 52 230 6.1 11.3 0.00 0.00 0.00 80 1002.3
20260507140005 52 228 5.2 9.6 0.00 0.00 0.00 80 1002.3
20260507135904 52 229 6.1 9.6 0.00 0.00 0.00 80 1002.3
20260507135804 51 230 6.1 9.6 0.00 0.00 0.00 80 1002.4
20260507135704 51 233 6.1 9.6 0.00 0.00 0.00 80 1002.4
20260507135625 51 232 6.1 9.6 0.00 0.00 0.00 80 1002.4
20260507135504 51 233 6.1 9.6 0.00 0.00 0.00 79 1002.3
20260507135404 51 231 6.1 9.6 0.00 0.00 0.00 79 1002.1
20260507135306 51 234 6.1 9.6 0.00 0.00 0.00 79 1002.5
20260507135204 51 235 5.2 9.6 0.00 0.00 0.00 79 1002.3
20260507135104 51 233 5.2 9.6 0.00 0.00 0.00 80 1002.3
20260507135004 51 232 5.2 9.6 0.00 0.00 0.00 80 1002.4
20260507134904 51 234 5.2 9.6 0.00 0.00 0.00 80 1002.6
20260507134804 51 236 5.2 9.6 0.00 0.00 0.00 81 1002.3
20260507134704 51 237 5.2 9.6 0.00 0.00 0.00 81 1002.6
20260507134604 51 243 5.2 13.0 0.00 0.00 0.00 81 1002.3
20260507134504 51 245 6.1 13.0 0.00 0.00 0.00 81 1002.5
20260507134404 51 249 6.1 13.0 0.00 0.00 0.00 81 1002.4
20260507134304 51 247 6.1 13.0 0.00 0.00 0.00 80 1002.5
20260507134204 51 248 6.1 13.0 0.00 0.00 0.00 81 1002.3
20260507134104 51 248 6.1 13.0 0.00 0.00 0.00 80 1002.4
20260507134004 51 253 6.1 13.0 0.00 0.00 0.00 80 1002.5
20260507133904 51 254 6.1 13.0 0.00 0.00 0.00 79 1002.6
20260507133804 51 253 6.1 13.0 0.00 0.00 0.00 80 1002.5
20260507133704 51 250 6.1 13.0 0.00 0.00 0.00 80 1002.3
20260507133604 51 248 6.1 13.0 0.00 0.00 0.00 80 1002.5
20260507133504 52 246 6.1 13.0 0.00 0.00 0.00 79 1002.6
20260507133404 52 246 6.1 11.3 0.00 0.00 0.00 80 1002.6
20260507133304 52 246 6.1 11.3 0.00 0.00 0.00 79 1002.4
20260507133204 52 243 6.1 11.3 0.00 0.00 0.00 79 1002.7
20260507133104 52 243 6.1 11.3 0.00 0.00 0.00 78 1002.6
20260507133004 52 236 6.1 11.3 0.00 0.00 0.00 78 1002.4
20260507132904 52 235 6.1 11.3 0.00 0.00 0.00 77 1002.4
20260507132804 52 233 6.1 11.3 0.00 0.00 0.00 78 1002.6
20260507132704 52 233 6.1 11.3 0.00 0.00 0.00 78 1002.6
20260507132604 52 236 6.1 11.3 0.00 0.00 0.00 78 1002.6
20260507132504 52 236 6.1 11.3 0.00 0.00 0.00 79 1002.6
20260507132404 52 231 6.1 11.3 0.00 0.00 0.00 79 1002.6
20260507132307 52 227 6.1 11.3 0.00 0.00 0.00 78 1002.4
20260507132204 52 230 6.1 11.3 0.00 0.00 0.00 79 1002.4
20260507132104 52 228 6.1 11.3 0.00 0.00 0.00 79 1002.7
20260507132004 52 231 6.1 11.3 0.00 0.00 0.00 78 1002.6
20260507131906 52 232 6.1 11.3 0.00 0.00 0.00 78 1002.3
20260507131804 52 234 6.1 11.3 0.00 0.00 0.00 79 1002.3
20260507131725 52 233 6.1 11.3 0.00 0.00 0.00 78 1002.3
20260507131604 51 226 6.1 11.3 0.00 0.00 0.00 79 1002.6
20260507131504 51 224 6.1 11.3 0.00 0.00 0.00 78 1002.4
20260507131404 51 224 6.1 11.3 0.00 0.00 0.00 78 1002.6
20260507131304 52 224 6.1 12.2 0.00 0.00 0.00 77 1002.5
20260507131204 52 225 6.1 12.2 0.00 0.00 0.00 78 1002.5
20260507131104 52 228 6.1 12.2 0.00 0.00 0.00 78 1002.6
20260507131004 51 228 6.1 12.2 0.00 0.00 0.00 79 1002.3
20260507130904 51 227 6.1 12.2 0.00 0.00 0.00 78 1002.5
20260507130804 51 227 6.1 12.2 0.00 0.00 0.00 77 1002.6
20260507130704 51 228 6.1 12.2 0.00 0.00 0.00 78 1002.6
20260507130604 51 233 6.1 12.2 0.00 0.00 0.00 78 1002.7
20260507130504 52 237 6.1 12.2 0.00 0.00 0.00 78 1002.4
20260507130446 52 236 6.1 12.2 0.00 0.00 0.00 77 1002.4
20260507130304 52 242 6.1 12.2 0.00 0.00 0.00 78 1002.6
20260507130204 52 244 6.1 12.2 0.00 0.00 0.00 77 1002.4
20260507130104 52 246 6.1 11.3 0.00 0.00 0.00 77 1002.7
20260507130004 52 244 6.1 9.6 0.00 0.00 0.00 77 1002.5
20260507125904 52 243 6.1 9.6 0.00 0.00 0.00 77 1002.6
20260507125804 52 243 6.1 12.2 0.00 0.00 0.00 78 1002.6
20260507125725 52 242 7.0 12.2 0.00 0.00 0.00 77 1002.6
20260507125604 52 238 7.0 13.9 0.00 0.00 0.00 75 1002.6
20260507125504 52 234 7.0 13.9 0.00 0.00 0.00 76 1002.4
20260507125404 52 232 7.0 13.9 0.00 0.00 0.00 76 1002.6
20260507125325 52 229 7.0 13.9 0.00 0.00 0.00 75 1002.6
20260507125204 52 229 7.8 13.9 0.00 0.00 0.00 75 1002.7
20260507125125 52 229 7.0 13.9 0.00 0.00 0.00 75 1002.7
20260507125004 52 226 7.0 13.9 0.00 0.00 0.00 75 1002.8
20260507124904 52 227 7.8 13.9 0.00 0.00 0.00 74 1002.6
20260507124825 52 227 7.8 13.9 0.00 0.00 0.00 75 1002.6
20260507124725 52 226 7.0 13.9 0.00 0.00 0.00 74 1002.7
20260507124604 52 228 7.0 13.9 0.00 0.00 0.00 74 1002.6
20260507124504 53 234 6.1 11.3 0.00 0.00 0.00 74 1002.4
20260507124404 53 240 6.1 11.3 0.00 0.00 0.00 74 1002.6
20260507124304 53 245 6.1 12.2 0.00 0.00 0.00 73 1002.5
20260507124204 53 244 6.1 13.0 0.00 0.00 0.00 74 1002.8
20260507124104 53 244 7.0 13.0 0.00 0.00 0.00 74 1002.5
20260507124004 53 245 7.0 13.0 0.00 0.00 0.00 73 1002.5
20260507123904 53 244 7.0 13.0 0.00 0.00 0.00 72 1002.6
20260507123804 53 245 7.0 13.0 0.00 0.00 0.00 73 1002.6
20260507123725 53 247 7.0 13.0 0.00 0.00 0.00 73 1002.6
20260507123604 53 248 7.8 13.0 0.00 0.00 0.00 74 1002.5
20260507123504 53 246 7.8 13.0 0.00 0.00 0.00 73 1002.4
20260507123404 53 242 7.8 13.0 0.00 0.00 0.00 72 1002.5
20260507123304 53 241 7.8 13.0 0.00 0.00 0.00 70 1002.5
20260507123204 53 241 7.8 13.0 0.00 0.00 0.00 71 1002.6
20260507123104 53 241 7.8 13.0 0.00 0.00 0.00 72 1002.5
20260507123025 53 240 7.8 13.0 0.00 0.00 0.00 71 1002.5
20260507122904 53 243 7.8 13.0 0.00 0.00 0.00 70 1002.4
20260507122804 53 241 7.8 13.0 0.00 0.00 0.00 71 1002.6
20260507122705 53 239 7.8 13.0 0.00 0.00 0.00 70 1002.5
20260507122604 53 236 7.8 13.0 0.00 0.00 0.00 71 1002.6
20260507122525 53 236 7.8 13.0 0.00 0.00 0.00 71 1002.6